ECMWFNIL_sfc_thetae_018.txt.gz
Theta_e
353 354 354 353 353 353 353 353 352 352 352 351 351 351 352 353 354 352 352 350 348 346 343 342 340 340 342 339 339 339 338 338 338 336 335 334 331 332 333 332 332 329
354 355 355 354 353 354 354 354 352 352 352 352 352 352 353 352 352 352 351 349 349 345 342 340 338 339 340 338 337 337 336 336 335 337 335 332 331 332 332 331 332 332
355 355 355 354 353 353 353 353 353 352 352 352 353 353 353 353 352 351 351 349 348 344 341 339 337 338 337 337 337 337 335 334 334 335 334 334 331 331 331 331 332 335
355 356 356 355 355 354 354 353 352 352 352 352 352 353 353 353 352 351 350 353 348 343 339 339 337 337 336 336 337 336 335 335 335 334 333 334 334 332 331 332 334 334
355 356 356 356 356 355 354 353 351 352 351 352 352 353 353 352 351 350 349 350 347 342 338 339 338 338 336 335 335 335 335 334 335 334 332 332 333 334 333 334 334 333
356 357 357 357 356 355 353 353 352 352 352 351 352 353 352 352 351 350 349 348 346 341 338 338 338 338 336 334 334 334 335 333 334 334 333 332 332 335 335 334 333 331
356 357 357 357 357 356 354 353 353 352 352 352 353 352 352 352 350 350 349 348 344 342 338 337 338 338 337 335 333 332 333 334 333 333 333 333 333 333 335 334 333 332
356 357 358 358 357 356 355 354 354 353 353 353 352 352 352 351 350 350 349 347 343 341 339 337 338 338 337 335 333 332 332 334 333 333 332 332 333 333 334 335 333 332
357 357 358 357 357 356 355 354 354 354 354 352 352 352 353 351 350 349 348 347 343 341 340 339 338 338 338 336 334 332 332 333 334 333 332 331 332 333 333 333 332 332
357 358 357 357 357 356 355 355 354 354 354 353 353 353 352 351 350 348 348 346 343 341 340 339 338 338 337 337 336 333 333 333 333 332 332 332 332 332 332 332 332 331
356 357 357 357 357 357 356 356 355 354 354 353 353 352 352 351 349 348 347 345 343 341 340 339 339 338 337 336 336 336 334 333 333 333 332 332 332 332 336 331 331 331
356 356 356 357 357 357 356 356 355 354 354 354 353 351 351 351 349 348 346 345 344 342 341 340 339 339 338 336 336 336 335 334 334 333 333 333 332 332 333 332 331 330
356 356 356 356 357 357 357 356 355 355 354 353 353 352 350 350 349 348 347 345 344 343 341 340 339 339 338 337 336 335 335 334 333 333 333 333 333 333 333 333 332 332
356 357 357 357 357 357 356 356 355 354 354 353 353 352 350 349 349 348 347 346 344 342 342 341 339 339 339 338 337 335 335 334 333 333 332 332 333 333 333 333 333 333
357 357 357 357 357 356 355 355 355 354 354 353 352 352 352 350 349 348 347 346 345 343 342 341 340 339 339 338 337 336 335 334 333 333 332 332 332 332 333 333 333 334
357 357 357 357 356 355 355 354 354 354 353 352 352 352 351 350 349 348 347 346 345 344 343 342 341 341 335 327 331 337 335 335 334 333 332 332 332 332 333 333 334 334
356 356 357 356 356 355 355 354 353 353 352 351 351 351 351 349 348 347 347 347 346 344 343 342 342 340 328 325 328 331 336 336 335 334 333 332 332 332 332 333 334 334
356 356 356 356 356 355 355 354 353 352 351 350 350 350 350 349 347 347 347 347 347 346 344 343 342 332 326 325 327 328 333 337 336 335 334 333 333 332 332 333 333 333
356 355 355 355 355 355 355 354 353 351 350 349 348 349 349 348 347 346 346 347 347 346 344 344 344 331 324 323 326 326 329 335 336 336 335 334 333 333 333 333 333 333
355 355 355 355 355 355 355 353 352 351 350 349 349 348 347 347 347 346 346 346 347 346 345 345 344 327 323 322 324 325 327 332 336 336 335 335 334 334 335 334 334 334
355 354 354 354 355 355 354 353 352 352 350 349 348 348 347 346 346 345 346 347 347 347 346 345 345 322 321 321 322 322 325 330 336 336 335 335 335 335 336 336 335 335
355 354 353 353 354 354 353 353 353 352 351 350 349 349 349 348 347 346 346 346 347 347 346 344 341 319 320 320 320 321 323 334 336 335 335 335 335 335 336 337 336 335
355 354 353 353 353 353 352 353 353 352 352 351 349 348 348 348 348 347 347 347 346 346 344 343 333 321 319 318 318 319 322 335 336 335 335 335 335 336 337 337 337 336
356 355 354 353 353 352 352 353 354 354 353 351 349 348 348 348 349 348 347 347 346 345 344 339 334 322 316 316 317 317 324 335 335 334 334 335 336 338 338 337 338 343
356 356 356 354 354 354 354 353 354 353 353 352 351 350 349 348 347 346 344 344 345 344 335 337 335 323 314 316 316 316 325 336 335 334 332 335 336 336 337 336 336 343
355 356 356 356 355 355 355 355 355 354 352 351 350 350 348 346 345 344 341 340 341 341 338 339 336 331 321 314 315 314 319 335 334 332 330 332 335 335 333 331 334 336

ECMWFNIL_sfc_thetae_021.txt.gz
Theta_e
350 350 350 350 349 350 350 351 351 351 351 352 351 352 353 355 355 353 353 352 352 350 347 345 344 342 341 340 340 339 339 338 337 335 333 332 329 329 332 331 328 330
350 350 352 351 351 351 351 352 352 352 351 352 352 352 353 354 354 354 352 352 351 349 347 345 343 341 340 339 339 337 337 337 336 337 333 331 329 329 330 330 331 329
350 350 350 350 350 351 351 352 353 352 352 352 352 352 352 354 353 353 352 351 350 348 346 345 343 341 340 338 338 338 337 335 335 335 334 331 330 329 329 330 329 330
351 351 351 351 351 351 352 352 352 352 352 352 351 352 352 353 353 352 351 354 349 348 346 344 343 340 339 338 337 337 336 335 336 335 334 332 331 330 329 329 330 330
351 351 351 351 352 352 352 351 351 352 351 352 352 352 352 352 351 351 350 350 349 347 345 343 341 339 338 337 336 336 335 334 334 333 332 332 331 331 330 330 329 329
352 352 352 351 352 352 351 351 351 351 351 351 351 352 351 352 351 350 350 349 348 347 345 342 340 337 336 335 335 335 335 334 333 332 331 331 331 332 332 330 330 329
351 351 351 352 352 352 351 351 352 352 351 351 352 351 351 351 350 350 350 349 348 347 344 342 340 337 335 334 334 334 334 334 333 332 331 330 330 330 331 330 330 330
351 352 352 353 352 352 352 352 352 352 352 351 350 351 351 351 350 350 350 349 348 347 345 342 340 338 335 333 333 333 333 334 333 332 331 330 329 329 330 332 330 330
351 351 352 352 352 352 352 352 352 352 352 351 350 350 351 351 350 350 349 348 348 347 344 342 340 339 337 334 333 332 332 332 333 332 331 330 329 329 330 331 330 330
351 351 351 352 352 353 352 353 353 352 352 351 351 351 350 351 351 350 349 348 347 346 344 342 339 338 337 335 333 332 332 332 332 332 332 331 331 331 330 330 331 329
351 352 351 351 352 353 353 353 353 353 352 351 351 350 350 350 350 350 349 348 347 346 344 342 340 338 337 336 335 333 332 332 332 331 331 331 331 331 335 331 331 330
352 352 351 352 352 352 353 353 354 353 352 352 351 350 350 350 349 349 349 348 347 346 345 343 340 338 337 337 336 334 333 332 332 332 331 331 331 330 332 332 331 331
352 352 352 352 353 353 354 354 354 354 353 352 352 351 350 349 349 348 349 348 347 346 345 343 341 339 337 337 336 335 334 333 332 331 331 331 331 330 331 331 331 331
352 353 353 353 354 354 354 354 354 354 353 353 353 351 350 350 349 348 348 348 347 346 345 344 341 339 338 337 336 336 335 333 332 332 331 331 331 330 331 331 331 331
352 353 354 354 354 354 354 354 354 354 353 352 352 352 352 351 350 349 347 346 346 346 345 343 341 340 339 338 336 335 335 334 333 332 332 331 330 330 330 331 331 331
353 353 354 354 354 353 353 354 354 354 353 352 351 352 351 350 350 349 348 346 345 344 344 343 342 341 335 327 330 336 335 335 334 333 332 331 331 330 330 331 331 332
353 353 353 353 354 354 354 354 353 353 353 352 351 351 351 350 349 348 348 347 345 344 343 343 343 341 328 325 327 330 335 334 334 333 332 331 331 330 330 331 332 332
353 353 353 353 354 353 353 353 353 353 352 352 351 350 350 350 348 347 348 347 347 345 343 343 342 331 325 324 326 326 330 336 334 333 333 332 331 331 331 331 332 332
353 353 353 353 353 354 354 353 353 352 351 351 350 350 350 348 348 347 347 347 347 345 344 343 342 330 324 323 325 325 326 332 335 334 333 332 332 331 331 331 330 331
353 353 353 353 354 354 354 353 352 351 351 351 351 350 349 348 348 347 347 346 346 346 345 344 343 328 323 321 322 323 325 329 336 335 334 333 333 332 332 331 331 331
354 353 353 353 354 354 353 353 352 351 351 351 350 349 349 348 347 346 347 346 346 346 345 344 345 327 321 319 319 321 323 326 336 336 335 334 334 334 333 333 332 333
354 353 353 353 353 353 353 352 352 351 350 350 350 349 349 349 348 348 347 346 346 346 345 344 345 324 320 318 318 319 322 331 335 336 336 335 335 334 334 333 333 333
354 353 353 353 353 353 352 352 352 351 351 351 349 348 347 347 348 347 347 346 346 346 345 345 345 325 318 317 317 318 321 333 335 336 336 335 335 335 334 334 334 334
354 354 353 353 353 352 352 353 353 353 352 351 349 348 347 347 347 347 347 347 346 345 346 345 345 324 316 315 316 316 322 333 335 335 335 335 334 334 334 334 336 341
354 354 354 353 352 353 353 352 352 352 352 352 350 349 348 348 347 346 346 346 346 346 337 342 345 325 313 315 315 315 323 335 335 335 334 334 334 333 334 334 334 341
354 354 354 353 353 353 353 353 353 353 352 351 350 350 348 347 347 346 345 345 345 346 345 344 343 331 320 314 314 314 318 335 336 335 333 333 333 334 333 332 333 336

ECMWFNIL_sfc_thetae_024.txt.gz
Theta_e
350 349 349 348 348 348 348 348 349 350 350 351 352 353 355 357 358 357 356 355 355 355 354 353 353 351 349 346 345 344 343 342 342 341 341 340 338 336 335 336 335 337
349 350 350 349 349 350 350 350 350 350 350 351 353 353 355 357 358 357 355 354 355 355 354 353 351 350 348 345 344 342 341 341 341 342 340 338 338 336 335 337 336 336
349 349 349 348 348 348 349 350 351 351 351 352 353 354 354 356 357 357 356 355 354 354 353 353 350 349 346 345 343 342 341 340 340 340 340 338 337 336 335 335 336 336
349 349 349 349 349 349 350 350 351 351 352 352 352 354 354 355 357 356 356 356 354 354 353 352 350 347 345 344 343 341 341 340 341 341 340 339 338 336 335 335 336 336
348 349 349 349 350 350 351 350 350 351 351 352 353 354 354 354 355 355 355 355 354 353 353 351 350 347 345 343 342 341 341 340 340 340 339 338 337 336 335 335 335 335
349 350 350 350 350 350 350 350 351 351 352 352 352 354 354 354 354 354 354 354 354 353 352 351 349 347 344 343 341 341 340 340 339 339 338 338 337 337 335 335 335 334
349 349 350 350 350 351 351 351 351 352 352 353 354 353 353 353 353 354 354 354 353 353 351 350 347 345 343 342 340 340 340 340 339 338 338 337 338 336 336 336 335 335
349 350 350 351 350 351 351 351 352 352 353 353 352 353 353 353 353 353 353 353 353 352 351 350 348 346 342 341 340 339 339 339 339 338 337 337 336 336 336 336 336 335
350 350 350 350 350 350 350 351 352 352 353 352 352 352 353 353 353 353 353 353 352 351 351 349 348 346 343 341 340 340 339 338 338 337 337 336 335 335 336 336 335 335
350 351 350 350 350 350 350 351 352 352 353 352 352 353 352 353 353 353 352 352 351 351 350 349 347 346 344 341 340 340 339 339 338 337 337 337 336 335 335 335 335 335
349 350 350 350 350 350 351 351 352 352 352 352 352 352 352 352 353 353 352 351 350 350 349 349 347 346 344 342 340 340 339 338 338 337 337 336 336 336 336 334 335 335
349 349 349 350 350 351 351 352 352 352 352 352 352 351 352 352 352 352 351 351 351 350 350 349 348 346 345 343 341 339 338 338 337 337 336 336 336 336 336 335 334 334
349 349 350 350 351 351 352 352 352 353 352 352 352 352 351 351 351 351 352 351 351 351 350 349 348 346 345 344 342 340 338 337 336 336 336 336 336 336 336 336 335 335
350 351 351 351 351 352 352 353 353 353 353 353 353 352 351 351 351 351 351 351 351 350 350 350 348 346 345 344 343 341 339 338 337 336 336 335 336 336 336 336 336 336
351 352 352 352 352 352 352 352 353 353 354 353 353 352 352 352 352 351 351 350 351 350 350 349 348 347 345 344 342 341 340 338 337 336 335 335 335 335 335 335 336 336
351 352 352 352 352 352 352 352 353 353 353 353 353 352 352 352 351 351 351 350 349 349 349 349 348 347 338 328 332 341 340 339 338 337 336 335 335 334 334 335 335 335
351 352 352 352 352 352 352 352 353 353 353 353 353 352 352 352 351 350 350 350 350 349 348 348 348 346 330 326 328 330 339 340 338 337 337 336 335 335 334 334 335 335
351 351 352 352 352 352 352 353 353 353 352 352 352 352 352 352 351 350 350 350 350 349 348 348 348 334 327 325 326 326 331 340 339 338 337 336 336 335 335 335 335 335
351 351 351 352 352 352 353 353 353 352 352 352 352 352 352 351 351 351 350 350 349 348 348 348 348 334 326 324 325 325 326 333 340 339 338 337 336 335 335 335 336 336
351 351 351 351 352 353 353 353 352 352 353 353 353 353 352 351 351 351 351 350 350 349 348 348 348 332 324 322 323 323 325 330 341 339 339 338 337 336 336 336 336 336
351 351 350 351 352 352 353 352 352 353 353 353 353 352 351 351 351 350 350 350 350 350 349 348 348 328 321 320 320 321 323 326 341 340 339 339 338 338 337 337 336 336
351 351 351 351 352 352 352 352 352 352 352 353 353 353 353 352 352 352 350 350 350 350 349 348 348 324 320 319 319 319 321 333 339 340 339 338 338 338 337 337 336 337
351 351 351 351 352 351 351 352 352 352 353 354 353 352 352 351 351 351 351 350 350 349 349 348 349 327 319 317 317 317 321 336 338 339 339 338 338 338 338 337 337 337
352 352 352 351 351 351 351 352 353 354 353 354 352 352 351 352 352 351 352 351 349 349 349 348 349 329 316 316 316 315 323 337 338 338 338 338 338 338 337 336 337 340
353 353 352 352 352 352 352 352 353 353 354 354 353 353 352 353 352 351 351 351 350 350 337 345 349 332 314 315 314 314 324 338 338 338 337 337 337 336 336 336 337 341
353 353 353 353 352 353 353 353 354 354 354 353 353 353 352 352 351 351 350 350 350 350 349 347 348 341 322 314 313 313 318 338 338 337 335 336 337 335 334 336 337 339

ECMWFNIL_sfc_thetae_027.txt.gz
Theta_e
360 360 358 357 357 357 358 358 358 359 361 360 360 362 363 367 367 366 365 364 364 363 363 363 363 364 363 364 362 361 361 360 359 358 356 353 351 350 349 348 349 347
360 360 359 359 358 359 359 360 360 359 361 362 362 363 367 368 367 367 366 365 364 363 364 362 363 364 364 363 361 359 358 359 359 358 355 354 352 352 349 350 349 349
359 359 358 357 356 357 355 358 360 361 360 361 363 365 365 367 367 367 366 365 364 363 363 363 362 363 362 363 362 359 359 358 358 356 355 354 352 351 351 347 349 349
359 359 358 357 357 357 357 358 359 360 360 360 361 362 363 364 366 366 366 364 364 364 364 363 362 361 362 362 361 359 359 359 358 357 354 354 354 352 351 351 348 349
358 358 358 358 358 359 359 358 357 357 358 359 361 362 363 364 365 364 363 362 361 363 363 362 362 361 362 361 361 359 358 357 357 356 353 352 353 352 351 350 349 347
359 359 359 359 359 359 358 357 357 357 358 357 360 361 362 363 363 363 362 360 360 360 361 361 361 360 361 360 359 359 358 356 355 354 352 351 351 351 349 349 349 347
357 358 358 358 358 359 358 358 358 359 358 359 362 360 361 362 362 363 363 361 361 362 362 362 361 360 360 360 358 358 358 357 355 353 352 351 352 351 349 349 348 347
356 356 357 357 357 357 358 358 358 359 360 361 360 361 362 361 362 363 363 362 362 363 363 363 362 360 358 358 357 357 357 355 354 353 352 351 351 350 350 348 348 347
356 356 357 357 356 356 355 356 357 359 360 360 359 359 362 361 362 362 363 364 363 362 363 363 362 359 360 357 358 357 356 354 353 352 351 350 349 349 349 349 347 347
356 356 355 355 354 355 355 355 356 357 359 359 359 358 360 361 363 363 364 364 362 362 362 362 361 358 358 358 358 357 356 355 353 352 351 350 349 349 348 349 347 346
354 355 354 354 354 354 354 355 355 356 358 358 358 358 360 361 362 363 363 363 362 363 362 361 359 359 358 358 358 357 356 355 354 353 352 351 350 350 349 350 348 347
354 354 353 354 354 354 354 355 355 356 357 357 358 358 360 360 361 361 362 362 363 363 363 362 361 360 359 359 357 356 356 355 354 353 351 351 351 350 350 350 349 348
353 354 355 354 355 355 356 356 355 356 356 357 358 358 358 359 361 361 362 362 363 363 362 363 361 359 360 360 358 357 355 355 353 353 351 351 351 350 349 349 349 348
354 356 357 357 357 358 358 357 357 357 358 359 359 358 358 359 360 360 362 362 362 362 363 363 361 360 361 361 359 357 355 354 353 352 351 351 350 350 349 348 348 347
357 358 359 359 359 359 358 358 358 359 359 360 360 359 359 360 360 360 361 360 361 362 362 361 359 359 360 359 358 357 356 354 353 352 351 350 349 349 348 348 348 347
359 360 360 360 359 359 360 360 359 360 360 360 361 360 360 361 361 361 360 360 359 360 361 359 357 358 347 333 338 356 356 354 353 352 352 350 349 348 347 347 346 346
359 359 359 359 359 360 360 360 360 360 360 360 360 360 360 361 360 359 358 359 359 358 357 357 356 354 334 330 331 335 351 355 353 352 352 350 349 348 347 346 346 346
358 359 359 358 359 359 360 360 360 360 360 360 359 359 360 360 359 359 360 359 358 358 358 357 356 338 330 329 329 329 334 354 354 352 351 350 349 348 348 347 346 345
360 359 359 359 359 359 360 360 360 360 359 359 358 360 360 359 359 358 358 358 358 357 355 356 356 337 329 327 327 327 327 339 354 353 351 349 349 348 348 348 347 346
359 358 358 359 360 360 360 360 359 359 359 360 360 360 359 357 357 357 358 357 357 356 356 357 357 336 327 325 325 324 326 332 353 352 352 351 350 349 348 348 348 347
360 359 359 360 360 360 360 359 358 359 359 359 358 358 358 357 356 356 356 357 357 357 356 356 356 332 324 323 322 321 323 327 351 352 352 352 351 350 349 348 349 348
359 359 360 360 360 360 359 358 359 359 359 360 359 358 358 358 357 357 357 357 357 357 356 354 356 328 323 322 320 320 321 338 348 351 351 351 351 350 350 350 349 349
359 359 359 359 359 359 358 358 359 359 360 360 358 357 356 356 357 357 358 357 357 356 355 354 356 336 321 319 318 318 323 343 347 350 351 351 351 351 350 350 349 349
359 359 359 358 359 358 358 358 359 361 360 360 358 357 355 356 357 357 358 358 356 356 355 355 356 337 317 317 317 316 326 344 347 349 350 351 351 351 351 350 348 342
360 360 360 359 359 359 359 359 359 360 361 360 359 359 358 359 357 356 356 356 356 356 342 350 356 338 315 317 315 314 328 348 349 350 349 350 350 350 351 350 349 343
359 361 361 360 360 360 361 360 361 360 360 360 359 359 357 357 357 356 356 356 356 357 356 355 355 356 330 315 314 313 318 346 351 349 348 349 350 349 348 349 348 347

ECMWFNIL_sfc_thetae_033.txt.gz
Theta_e
367 365 363 362 361 361 361 363 365 366 366 362 360 363 363 364 366 364 364 366 367 368 367 369 370 370 369 369 369 368 366 365 364 362 362 359 356 355 353 350 352 350
367 366 366 364 363 364 363 363 366 366 366 366 362 363 366 366 365 365 364 364 367 368 369 367 369 371 371 367 369 366 365 365 364 362 360 359 358 356 354 352 351 353
367 367 366 364 361 363 361 363 366 366 365 366 365 364 364 367 367 368 367 366 367 367 369 368 368 370 370 368 368 367 364 366 365 361 362 359 355 356 357 351 349 352
368 367 366 365 363 364 364 364 364 366 366 365 365 362 362 364 367 367 368 369 368 368 368 368 367 367 369 368 368 366 365 366 365 366 361 360 359 357 357 354 350 352
368 368 366 367 366 367 368 365 362 364 365 365 365 366 365 366 368 368 369 368 370 369 368 367 367 366 368 369 369 367 364 363 364 365 362 360 360 358 357 355 352 351
369 370 369 368 369 368 366 365 364 364 365 363 364 365 365 365 366 368 369 369 368 366 365 365 367 367 366 369 368 367 364 362 361 364 361 359 359 358 356 356 353 351
366 368 367 368 368 369 366 366 368 367 365 366 365 365 365 365 366 368 369 370 370 369 365 365 368 366 367 368 368 367 366 365 363 363 362 359 359 358 357 357 354 352
366 367 368 367 367 367 367 368 368 367 367 368 364 366 367 367 368 367 369 369 370 370 368 365 368 369 365 365 365 365 365 364 363 362 363 362 359 359 359 357 356 352
366 368 367 367 366 364 365 366 368 368 369 367 364 364 368 367 367 368 370 370 370 370 370 367 369 368 367 365 365 365 364 363 363 363 362 360 357 358 358 359 356 354
367 366 365 365 363 363 363 363 363 366 369 367 366 363 364 368 368 369 371 371 369 369 370 369 368 368 368 366 365 365 365 365 364 363 362 360 359 358 359 358 356 354
364 364 364 363 362 361 360 360 361 364 367 367 366 363 362 366 369 370 371 371 368 368 368 369 368 369 369 366 365 366 366 364 364 365 364 363 362 361 360 361 358 355
365 363 362 363 361 360 359 360 360 363 364 366 365 363 361 362 367 368 370 371 371 370 370 370 370 370 370 368 364 364 365 365 364 365 365 365 364 362 362 362 361 358
363 362 363 362 363 360 360 360 361 361 360 361 365 364 363 360 364 369 369 371 372 371 370 371 371 370 370 370 367 365 365 364 363 365 365 365 365 364 362 363 362 360
364 366 366 366 366 368 365 362 362 361 361 362 366 365 364 363 362 367 369 370 372 372 371 372 372 371 371 372 368 365 364 364 364 365 364 365 365 365 364 363 362 361
369 368 369 368 368 369 367 366 367 367 367 366 369 368 366 365 364 366 369 370 370 372 372 371 371 370 371 370 369 367 364 363 364 364 364 364 364 364 364 364 363 362
371 371 370 370 368 370 371 369 367 368 366 369 368 367 368 368 368 366 367 369 368 370 372 370 370 371 357 341 347 366 365 363 364 366 365 364 364 363 363 363 362 361
370 370 371 370 370 370 371 371 370 367 369 370 369 368 369 372 368 365 365 368 368 368 370 370 370 368 340 335 337 342 361 365 364 365 366 364 362 364 364 363 362 361
369 370 371 370 371 370 370 371 370 368 368 369 366 365 370 368 366 366 368 367 368 368 367 369 370 346 334 333 334 335 343 365 364 363 363 364 363 363 364 364 362 361
371 370 370 371 371 371 371 371 370 368 367 366 365 367 366 368 369 367 367 367 367 368 367 368 369 342 332 331 333 332 334 348 364 363 362 362 363 364 365 365 363 361
371 370 370 371 372 371 370 370 369 368 367 366 366 367 366 367 367 368 368 368 367 368 369 368 369 340 329 328 329 329 331 340 363 363 364 363 364 364 365 365 364 363
371 371 370 371 372 371 370 369 369 369 367 366 365 365 365 366 366 367 367 368 367 366 367 367 367 335 326 326 326 326 328 333 362 363 364 364 363 364 365 364 365 364
370 371 370 372 372 371 369 368 369 369 368 367 366 365 366 366 367 367 367 367 367 367 366 365 366 332 324 325 324 324 326 347 361 363 363 362 364 365 365 367 366 366
370 370 371 371 372 370 369 368 368 369 369 369 365 364 364 364 366 366 368 368 368 367 364 363 365 341 321 322 322 322 328 354 360 361 362 361 363 365 366 366 365 365
371 371 371 371 371 370 368 369 369 370 369 369 366 363 362 364 366 366 367 367 364 364 363 363 364 345 318 319 320 319 331 356 360 361 361 362 363 365 365 365 364 349
370 371 371 371 371 371 370 369 368 369 370 370 367 366 364 365 366 366 366 366 364 364 347 358 363 348 317 319 317 318 332 359 361 361 360 361 361 361 363 364 365 354
370 373 372 371 371 372 372 370 370 369 369 368 368 367 365 364 363 364 364 365 366 365 364 362 362 365 341 315 316 316 321 357 363 361 358 359 360 358 357 361 362 364

ECMWFNIL_sfc_thetae_036.txt.gz
Theta_e
365 365 363 362 360 359 359 362 364 364 364 363 363 363 363 365 366 364 364 367 368 367 368 371 371 372 371 371 371 370 368 366 363 366 365 362 359 354 351 349 350 350
364 366 364 363 361 361 361 362 365 366 366 367 365 366 367 368 366 366 365 365 368 367 368 369 371 371 370 368 370 368 370 368 365 364 363 362 359 355 353 352 351 350
364 364 364 361 359 360 357 361 364 367 368 368 368 368 368 368 366 366 367 365 366 365 368 368 369 371 370 370 370 368 367 367 364 360 362 362 359 357 356 352 350 351
364 364 362 361 360 359 359 359 361 365 366 367 365 364 365 364 365 366 366 368 366 366 367 368 367 368 370 370 370 368 367 367 365 365 363 363 360 357 356 358 351 350
364 364 362 361 361 361 360 358 357 360 362 364 366 366 364 367 367 365 365 366 367 367 368 368 368 367 370 370 369 367 366 366 366 367 364 362 361 359 358 357 355 349
364 364 364 362 362 362 361 359 359 358 360 359 365 366 364 365 368 365 366 365 365 365 364 367 367 366 368 369 368 367 365 363 364 366 364 362 359 357 356 357 356 352
364 365 363 364 363 362 362 361 361 360 361 362 365 365 365 363 364 365 367 367 364 363 364 365 367 365 366 367 367 366 366 364 364 366 363 362 361 357 355 357 357 354
363 364 364 363 362 361 361 361 362 362 363 365 364 365 366 363 363 363 367 368 366 365 366 367 368 367 366 367 366 366 365 364 363 364 363 362 361 359 356 356 358 354
364 364 363 361 359 358 356 357 361 364 364 364 363 362 365 364 364 362 364 369 368 368 368 367 367 367 365 365 366 366 364 362 361 363 362 361 360 359 358 357 357 355
364 365 361 358 358 360 358 356 359 361 364 363 363 362 363 364 366 365 366 368 369 369 369 367 367 366 365 365 367 366 365 364 362 362 362 361 360 359 358 357 356 356
360 362 362 361 360 358 359 358 359 361 362 360 360 360 362 364 365 367 368 368 367 368 370 369 367 367 365 364 366 366 365 364 363 363 362 362 361 361 360 357 357 356
361 359 359 361 359 358 358 358 360 359 361 364 363 361 361 362 365 366 367 368 367 368 369 370 368 367 367 365 364 364 364 364 363 363 363 362 362 362 361 359 358 357
360 359 359 360 361 360 358 360 359 358 359 363 362 361 361 360 364 366 367 369 369 368 368 369 369 367 367 367 365 363 364 364 362 363 362 362 362 362 361 360 359 359
361 361 360 361 362 361 361 360 358 359 360 363 366 364 362 361 362 366 366 367 369 369 369 369 369 368 368 368 367 365 364 364 363 362 361 362 362 362 361 360 360 359
362 363 362 362 363 363 362 361 360 361 361 362 366 366 364 364 362 364 366 366 368 369 368 368 368 367 367 367 367 366 365 363 363 362 361 361 361 361 362 362 361 360
365 365 364 363 363 363 362 362 361 361 360 361 364 367 366 365 363 361 364 366 366 368 369 368 367 367 355 342 348 365 364 362 363 363 362 361 361 361 362 363 362 361
367 366 366 364 363 364 364 363 362 362 362 362 363 365 366 366 365 362 359 363 365 366 367 368 367 365 341 335 338 343 360 362 361 362 362 361 361 361 361 362 362 362
367 367 367 366 365 364 365 364 363 363 363 363 362 363 366 367 365 365 363 361 365 366 366 368 368 347 336 334 335 336 344 362 361 361 362 361 362 361 362 361 362 362
369 368 368 368 367 365 366 367 365 363 363 363 361 363 365 366 366 365 364 363 364 366 366 368 369 344 333 331 333 334 336 349 361 360 360 361 361 361 361 361 361 361
370 369 368 369 370 368 367 367 366 364 363 363 363 364 365 365 365 365 365 364 363 366 367 367 367 345 330 329 330 331 333 341 362 361 359 359 361 361 360 360 361 360
371 369 369 370 371 370 368 367 367 366 365 364 363 363 363 364 365 365 365 365 364 364 366 367 366 341 328 326 327 328 330 334 360 362 361 360 362 363 362 360 361 362
371 370 370 370 371 371 368 367 367 367 366 366 364 362 363 364 366 365 365 365 366 365 364 364 366 337 326 324 324 326 328 343 358 361 360 361 361 362 363 363 362 362
371 370 370 371 372 371 369 367 367 368 369 368 365 363 363 363 362 363 365 365 366 365 364 363 364 344 324 322 322 323 328 348 357 360 360 360 361 362 362 363 363 363
371 371 371 371 372 371 369 368 369 370 369 368 365 362 360 361 362 362 363 364 364 365 364 363 364 348 321 319 319 320 330 351 356 358 359 359 359 361 363 363 362 350
371 372 372 371 371 372 372 370 369 369 370 370 366 364 362 364 364 363 363 364 363 365 349 359 363 351 320 318 317 318 329 353 357 358 358 359 358 359 362 363 363 352
370 372 373 372 371 372 373 372 371 369 370 369 367 364 363 362 363 363 364 363 364 365 365 363 364 365 344 315 316 316 320 351 359 358 357 358 359 359 358 360 362 364

ECMWFNIL_sfc_thetae_039.txt.gz
Theta_e
355 355 355 354 353 354 355 354 355 353 354 354 356 356 357 358 359 358 358 360 362 361 363 363 363 363 364 362 361 360 359 358 358 358 356 353 353 348 344 344 343 341
355 355 356 355 354 354 355 357 356 355 354 356 356 358 359 359 359 358 357 360 361 361 362 363 363 364 363 362 362 361 359 358 356 360 357 354 354 349 346 343 343 342
356 355 355 354 353 353 354 357 357 356 355 356 358 358 359 361 359 357 357 360 360 361 361 362 363 363 364 362 362 361 360 358 356 359 358 355 354 349 348 345 343 343
356 356 356 356 355 354 353 353 357 358 357 357 358 360 360 361 360 358 357 362 360 360 360 361 363 363 363 362 362 360 360 360 358 358 357 356 355 351 349 347 344 343
356 356 357 357 356 355 353 352 353 357 358 359 359 360 360 359 359 358 358 358 359 360 360 360 361 363 363 362 362 360 360 360 359 357 356 355 355 353 350 349 345 343
356 357 357 357 356 355 353 352 352 354 358 360 360 361 361 360 359 359 358 358 359 359 359 360 359 361 363 362 362 360 360 359 360 358 356 354 355 354 353 350 348 344
355 356 356 357 356 355 354 353 352 352 355 359 361 360 359 359 359 358 358 358 359 359 359 360 359 359 362 362 361 360 360 359 359 358 357 355 354 353 352 351 349 347
355 355 356 356 356 355 354 353 352 352 353 356 358 361 359 358 359 359 359 358 358 358 359 360 360 360 361 362 361 360 359 360 359 358 357 356 355 352 351 351 350 348
356 355 356 355 355 354 354 353 352 352 353 353 355 359 360 359 357 359 359 358 357 358 358 359 360 360 360 361 361 360 359 359 359 358 357 356 355 354 351 350 350 349
356 356 356 355 354 354 353 354 353 352 353 353 354 356 359 360 358 357 359 359 358 357 357 358 360 360 360 360 361 360 359 358 358 357 358 357 356 355 353 350 349 349
356 356 355 355 355 354 353 354 354 353 353 353 354 354 356 358 358 357 356 359 360 358 357 357 359 361 360 359 360 361 360 359 358 356 357 357 357 356 357 352 350 349
356 356 355 355 354 354 354 353 353 354 354 354 355 355 356 357 358 357 356 355 359 360 359 358 359 360 360 359 359 360 360 360 359 357 356 357 357 356 356 355 352 350
356 355 355 355 355 354 353 353 352 352 354 354 355 356 356 356 357 357 357 356 356 360 361 361 360 360 361 360 359 360 360 359 358 358 356 356 357 357 357 356 354 353
355 355 355 355 355 354 353 352 352 351 352 354 356 355 355 355 356 357 357 358 357 357 360 362 362 360 360 360 359 359 359 359 359 358 357 356 356 356 357 356 355 354
355 355 355 355 355 353 352 352 352 351 352 353 355 355 355 355 356 357 357 357 358 358 358 361 363 362 361 360 359 358 359 359 359 358 357 355 355 356 356 356 356 355
355 355 354 355 355 354 352 352 352 352 352 353 355 355 354 354 354 356 357 357 357 359 359 360 361 363 353 340 344 358 358 359 359 358 357 356 355 355 355 356 357 356
354 354 354 353 354 355 354 352 352 353 353 352 354 356 356 355 355 354 356 357 357 358 359 360 360 360 341 334 336 340 355 358 357 357 357 356 355 354 354 355 356 356
355 354 354 353 353 353 354 353 352 352 352 352 353 356 357 357 356 354 355 357 358 358 359 360 360 344 336 333 333 334 340 358 358 357 357 356 355 354 354 354 355 356
356 355 355 354 352 353 354 354 353 352 352 352 352 354 357 357 357 356 355 356 358 357 357 359 360 343 334 331 331 332 333 344 359 358 357 356 356 355 355 354 354 355
357 356 355 355 354 353 354 354 353 352 352 352 353 353 355 357 358 357 356 355 356 357 358 358 359 343 332 329 328 329 331 337 358 357 357 356 356 356 356 355 355 354
358 357 356 356 356 355 354 354 354 353 352 352 353 352 353 355 357 357 357 356 356 355 357 358 360 340 330 327 325 325 329 332 355 358 356 355 356 356 356 355 355 356
359 358 357 357 357 356 354 354 354 354 353 353 353 353 353 354 356 357 357 357 357 356 355 355 360 336 328 325 324 323 326 341 352 356 356 355 354 355 356 356 356 356
360 359 358 358 358 357 356 355 355 355 355 355 353 353 353 353 353 355 357 357 357 357 356 355 356 341 326 323 322 322 326 346 352 354 355 355 355 354 355 356 356 356
362 361 359 359 359 358 358 357 357 357 357 357 354 353 353 353 354 355 356 357 357 357 357 356 356 344 321 320 319 320 329 349 352 354 355 355 355 355 355 355 356 348
363 362 361 360 360 360 361 360 359 359 359 360 358 357 355 355 355 355 355 357 358 358 348 354 357 348 321 318 317 318 329 350 354 354 354 355 355 355 355 356 356 351
364 363 362 361 361 361 362 362 362 361 361 361 361 359 357 357 356 356 355 356 357 357 359 358 358 359 344 315 315 315 320 347 354 354 354 354 356 355 355 355 355 356

ECMWFNIL_sfc_thetae_042.txt.gz
Theta_e
349 350 349 348 350 349 348 348 349 348 347 350 351 352 354 355 356 357 357 359 360 360 361 362 361 360 360 360 359 358 357 356 356 354 352 351 349 346 342 341 339 337
349 350 351 350 349 351 350 349 349 350 349 350 352 353 354 355 355 357 356 358 360 360 360 361 361 361 360 359 358 358 356 355 355 357 354 350 350 349 344 341 341 339
350 349 350 350 349 349 351 351 350 350 351 351 353 354 355 356 355 356 356 357 358 359 359 360 361 361 360 359 359 358 357 355 354 356 355 351 350 349 347 342 341 340
350 350 350 351 351 350 351 352 351 351 351 352 352 355 356 357 356 355 355 360 357 358 359 360 360 361 361 360 359 358 357 356 356 356 355 353 352 351 348 344 341 341
350 350 351 351 352 352 351 351 352 352 351 352 354 355 356 356 356 356 355 356 356 357 358 358 360 360 360 360 359 358 357 356 356 355 354 353 352 351 349 346 343 340
351 351 352 352 352 352 351 351 353 353 352 351 353 356 356 357 356 356 355 354 356 357 357 357 358 360 360 360 359 358 357 356 356 355 354 353 353 353 351 348 345 342
351 351 351 352 352 352 351 351 352 354 354 353 353 354 356 356 356 356 355 355 355 356 356 356 356 357 359 359 359 357 357 357 356 355 353 353 353 352 352 349 346 344
351 352 352 353 352 352 351 351 351 352 355 355 353 354 356 356 357 357 356 355 354 355 356 357 357 356 358 359 358 357 357 357 356 355 353 353 353 352 352 351 348 346
352 352 353 353 352 352 352 352 351 350 353 355 355 355 356 357 356 356 356 356 355 355 355 356 356 356 357 358 358 357 357 357 357 356 355 353 352 352 352 351 349 347
351 352 352 353 352 353 352 352 352 351 351 352 356 357 356 357 357 356 356 355 355 355 355 355 356 356 356 357 358 358 357 357 356 356 356 355 354 353 352 351 350 348
352 352 351 352 352 353 353 353 353 352 351 350 352 355 357 357 357 357 356 355 355 354 355 355 355 356 356 356 357 358 358 357 357 356 356 355 355 354 356 352 350 349
352 352 351 351 352 353 353 353 353 352 351 351 350 351 354 357 356 356 356 356 355 355 355 355 356 356 356 356 356 357 358 358 357 357 356 356 355 355 355 353 351 350
352 352 352 352 352 352 353 353 353 353 352 350 351 350 350 353 356 356 355 356 356 356 355 355 355 356 356 356 356 357 357 357 357 356 356 356 356 356 355 355 353 351
353 353 353 353 353 353 353 353 353 352 352 351 351 349 349 350 353 356 356 355 355 356 356 356 355 355 356 357 357 357 357 357 357 356 356 355 355 356 356 355 355 354
354 354 354 354 354 353 352 352 352 352 352 351 350 350 350 350 351 354 355 355 354 355 356 357 356 355 355 356 357 356 357 356 357 356 356 355 354 355 355 355 355 355
355 355 354 354 353 353 352 352 352 351 351 350 350 350 350 350 350 351 353 354 354 353 354 356 357 357 348 336 341 356 356 357 357 356 356 355 354 353 353 354 355 355
354 354 354 353 353 353 353 352 352 351 350 350 350 350 350 350 350 350 351 352 353 353 353 353 355 356 339 333 333 337 352 356 356 355 356 355 355 353 352 353 354 355
355 354 354 353 353 352 352 352 352 351 350 349 348 349 350 350 350 350 351 352 353 353 353 353 353 340 334 332 332 331 337 356 356 356 356 355 355 354 354 353 353 353
355 354 354 353 353 353 353 352 351 350 349 348 347 348 349 349 349 350 350 351 352 352 352 354 354 339 332 330 331 330 330 341 356 356 355 355 355 355 354 353 353 352
356 354 353 353 353 353 352 351 350 349 349 349 349 348 348 349 349 349 350 349 350 351 352 353 354 340 330 327 328 328 329 333 354 356 355 355 355 355 355 354 353 352
356 355 353 353 353 352 352 351 351 350 349 349 349 348 347 348 349 349 349 350 350 351 351 352 354 337 329 326 325 325 327 329 351 356 356 355 355 355 355 355 354 354
356 355 354 353 352 351 351 351 351 351 349 349 349 349 349 349 350 351 350 350 350 350 350 350 353 333 327 324 323 323 325 338 349 353 355 355 355 355 355 356 355 355
357 355 354 353 352 351 350 350 350 351 351 351 349 349 348 348 349 350 352 352 352 352 350 350 352 338 325 322 321 321 324 343 348 351 354 355 355 355 355 355 356 356
357 356 355 354 353 351 351 350 351 351 351 352 350 349 348 349 349 350 352 353 353 353 353 352 352 342 322 319 319 319 327 345 348 350 352 353 354 355 356 355 355 348
357 357 356 355 354 353 353 351 351 351 351 352 351 350 350 350 350 349 350 351 353 354 348 351 354 344 317 319 317 318 328 347 350 351 351 352 353 354 355 355 355 350
357 357 357 356 355 354 354 354 353 352 351 351 351 351 350 350 350 349 349 350 351 352 354 354 354 354 332 317 316 316 320 345 351 351 350 351 352 353 353 354 355 354

ECMWFNIL_sfc_thetae_045.txt.gz
Theta_e
349 349 348 348 348 348 347 346 346 345 346 349 350 351 352 353 354 355 355 356 357 358 358 358 359 358 359 358 357 356 355 354 354 353 351 349 347 346 342 339 337 335
349 349 350 348 348 349 348 347 346 346 345 347 350 351 352 353 353 355 355 355 357 357 358 359 359 358 358 357 356 356 355 354 353 355 352 349 348 347 344 341 339 337
349 349 349 347 347 347 348 348 347 347 345 346 349 350 352 354 353 354 355 355 355 357 357 358 359 359 358 357 356 356 355 354 353 354 353 351 349 348 347 343 340 339
348 349 349 348 348 347 348 348 347 347 347 346 347 350 352 354 353 353 354 358 355 356 356 357 358 359 358 358 356 356 356 355 355 354 353 352 351 349 348 345 342 340
348 348 349 349 349 348 348 348 347 347 348 348 348 349 352 352 352 352 353 354 354 355 356 356 357 358 358 358 357 355 355 355 354 353 352 352 351 350 349 347 343 340
349 349 349 348 349 348 347 348 348 348 348 348 349 350 351 352 352 352 353 353 354 354 355 356 356 357 358 358 357 356 355 354 354 353 352 351 351 351 351 348 345 342
348 348 348 349 348 349 348 348 349 349 349 349 350 350 351 352 352 352 352 353 353 354 354 355 355 356 357 357 356 356 356 355 354 353 352 352 352 351 351 349 347 345
348 348 348 349 348 348 348 348 348 350 350 350 348 350 352 352 352 353 353 353 352 352 353 354 355 355 356 356 356 355 355 356 355 353 352 352 351 351 351 351 349 346
348 348 348 348 348 348 348 349 349 349 351 350 350 349 352 353 353 353 353 353 352 352 352 353 354 354 355 355 355 355 355 355 355 354 353 352 351 351 351 351 349 348
347 348 348 348 348 348 348 349 349 349 351 351 351 351 350 353 354 353 353 352 352 352 352 352 353 354 354 354 355 355 355 355 355 355 354 354 353 352 351 351 350 348
347 348 347 348 348 348 349 349 350 350 350 351 352 351 351 351 353 354 353 353 352 352 351 352 353 353 353 353 354 355 355 355 355 354 354 354 354 353 355 351 351 350
348 348 348 348 348 349 349 350 350 350 350 350 351 352 352 352 351 353 354 353 353 353 352 352 352 353 353 353 354 354 355 355 355 355 355 354 354 354 353 353 351 351
348 348 348 349 349 349 350 350 350 350 350 349 350 351 352 352 352 352 353 353 353 353 353 353 352 353 353 353 353 354 354 354 354 355 354 354 354 354 354 354 353 352
349 349 349 349 350 350 350 350 351 350 350 350 350 349 349 351 353 353 353 353 353 353 353 353 353 352 352 353 353 353 353 353 354 354 354 354 354 354 355 354 354 354
349 350 350 350 351 350 350 350 351 351 351 351 350 349 349 349 351 353 353 353 353 353 353 353 353 352 353 353 352 353 353 353 353 353 353 353 353 354 354 354 354 354
350 350 350 350 350 349 350 350 350 351 351 350 350 349 349 349 348 349 351 353 352 353 353 354 353 354 346 335 339 353 353 353 353 353 353 353 352 352 353 353 354 354
350 350 350 349 350 350 350 350 350 350 350 350 350 349 349 348 348 347 347 350 351 352 352 353 354 353 337 331 331 334 349 353 353 353 353 353 353 352 352 352 353 354
351 351 350 350 350 350 350 350 350 350 349 349 349 349 349 349 348 347 347 347 348 350 351 352 352 339 333 330 330 329 334 353 353 353 353 353 353 353 353 353 352 353
351 351 351 351 350 350 351 350 350 349 349 349 348 349 349 348 347 347 347 347 347 347 348 350 351 337 331 329 329 328 328 337 353 353 353 352 353 353 353 353 353 352
352 352 351 351 352 351 351 351 350 349 349 350 349 349 348 348 348 347 347 346 347 346 347 348 349 337 329 326 326 326 327 330 349 352 353 353 353 353 354 353 353 353
353 352 352 352 352 352 351 351 350 350 350 350 350 349 348 347 347 347 347 347 347 347 347 347 348 334 328 324 323 323 324 326 345 350 352 353 353 353 354 354 354 354
353 353 352 353 352 352 351 351 351 350 350 350 350 350 349 349 348 348 347 347 347 347 347 346 348 332 326 324 322 321 323 335 342 347 350 352 353 353 354 354 354 354
355 354 353 353 353 352 351 351 351 351 351 351 350 349 348 348 347 347 348 347 347 347 346 346 347 336 325 322 320 320 322 338 342 346 349 350 352 353 354 354 354 354
356 355 354 353 353 352 351 351 352 352 351 352 350 349 348 348 348 347 347 347 346 346 347 346 347 339 324 319 318 318 325 340 343 345 347 349 350 352 354 354 355 347
357 356 355 354 353 353 353 352 352 352 352 352 351 350 349 349 348 347 347 347 347 347 342 345 347 341 323 319 317 316 326 342 345 345 346 348 349 350 352 354 354 350
358 357 356 355 354 354 354 353 353 352 352 351 351 350 349 349 348 347 346 347 347 347 348 347 347 348 339 318 316 315 318 342 346 346 346 347 348 349 350 351 353 354

ECMWFNIL_sfc_thetae_048.txt.gz
Theta_e
350 350 349 349 349 349 349 348 347 348 349 351 351 352 353 355 357 357 357 358 358 359 359 359 361 361 361 361 360 359 359 358 358 357 356 354 353 351 349 345 343 342
350 350 351 350 349 350 350 349 348 348 348 350 352 353 354 355 356 357 356 357 358 358 359 359 360 361 361 361 360 359 358 358 357 358 356 354 354 352 350 349 346 345
350 350 350 349 348 349 349 349 350 349 348 349 351 353 353 355 355 356 357 357 356 358 359 360 360 360 361 361 360 359 358 358 357 357 357 356 355 353 353 350 348 346
350 350 350 349 349 349 350 349 349 349 349 348 349 352 353 355 355 355 356 358 356 357 358 359 360 360 360 360 360 359 359 359 359 358 357 357 356 355 354 352 350 348
350 350 350 350 350 350 350 349 348 348 348 348 348 351 353 354 354 354 355 356 356 356 357 358 359 360 361 360 359 358 358 358 359 358 356 356 357 355 354 353 351 349
350 351 351 350 350 350 349 349 349 348 349 348 348 350 351 353 354 354 354 354 355 356 356 357 358 359 360 360 359 358 358 358 358 357 356 355 356 356 355 354 352 350
349 350 350 350 350 350 349 349 350 350 349 350 350 349 350 351 353 353 354 354 354 355 355 356 357 357 359 360 359 358 358 358 358 357 356 356 356 355 355 355 353 352
350 350 350 350 349 349 349 349 349 350 350 350 349 349 350 351 352 353 354 354 354 354 355 356 356 357 358 358 358 357 357 358 357 356 356 356 356 355 355 355 354 353
350 349 350 349 349 349 348 349 349 350 351 349 349 350 351 351 351 352 353 354 353 354 354 355 355 356 357 358 358 358 357 357 358 357 356 355 355 355 355 355 354 353
349 349 349 349 348 349 348 349 349 349 351 350 350 350 350 352 352 352 353 353 353 353 353 354 354 355 356 357 357 357 357 357 358 358 357 357 356 356 356 355 354 354
348 349 348 348 348 348 348 349 349 349 350 350 350 350 350 351 352 353 353 353 352 352 353 353 354 354 355 356 357 358 358 357 357 357 357 357 357 357 357 356 355 354
348 348 348 348 348 348 349 349 349 349 349 351 351 351 351 351 352 353 353 352 353 353 353 353 354 354 354 355 355 356 357 357 358 357 357 357 357 357 357 357 356 355
348 348 348 348 349 349 349 349 349 350 350 349 351 351 351 351 351 352 354 353 353 354 353 353 353 354 354 355 355 356 356 356 356 357 357 357 357 357 357 357 357 356
348 348 349 349 349 350 350 349 350 350 350 351 351 350 351 351 351 351 352 354 354 354 354 355 354 354 354 354 355 355 355 355 356 356 356 356 357 357 357 357 357 357
349 349 349 349 350 349 349 349 350 350 351 351 351 351 351 351 352 352 352 352 353 354 354 355 354 353 354 354 354 355 355 355 355 355 355 355 356 356 357 357 358 358
349 349 349 349 349 349 349 349 349 350 350 350 350 351 351 351 352 353 352 352 352 353 353 354 354 354 346 335 339 353 355 355 355 355 355 355 355 355 356 356 357 357
349 349 349 348 349 349 349 350 350 350 350 350 350 350 350 351 351 350 351 352 352 352 352 353 353 352 336 330 331 334 350 354 354 354 355 355 355 354 354 355 356 357
349 349 349 349 349 349 350 350 350 350 350 350 350 350 350 351 350 349 350 351 352 353 352 353 354 339 332 329 329 328 334 353 355 354 354 354 354 354 354 355 355 356
349 349 349 349 349 350 350 350 350 350 350 350 349 351 351 350 350 349 349 349 349 350 350 352 353 337 331 328 328 327 327 337 354 354 354 354 354 354 355 355 355 355
349 349 349 349 350 350 350 350 350 349 350 351 351 351 350 350 350 350 350 349 349 348 349 350 351 337 329 326 326 325 326 330 350 353 354 354 354 355 355 355 355 355
350 350 349 350 350 350 350 350 350 350 350 350 351 350 350 350 350 349 349 350 349 349 349 348 349 333 327 324 323 322 324 327 347 352 353 354 355 355 356 355 356 356
350 350 350 350 350 350 350 350 350 350 350 351 351 351 351 351 351 351 350 350 350 350 349 348 349 330 325 323 321 321 323 336 345 349 351 353 354 355 355 356 357 357
352 351 351 351 351 350 350 350 350 350 351 352 351 350 350 350 350 350 351 350 350 350 349 348 349 336 324 321 320 319 322 340 344 347 349 350 352 353 355 355 356 357
353 352 352 352 352 351 351 351 352 352 352 353 351 350 350 350 351 351 351 351 350 349 349 349 349 340 323 319 318 318 325 342 345 346 347 349 350 352 354 355 355 347
354 354 353 352 352 352 352 352 352 352 353 353 352 352 352 352 352 351 351 351 350 350 343 347 349 342 323 319 317 316 325 343 345 346 346 347 349 350 352 353 354 350
355 355 354 354 353 353 354 354 354 354 354 353 353 353 353 353 352 352 351 351 351 351 350 349 349 350 343 319 316 314 317 342 347 346 345 347 348 349 350 351 353 354

ECMWFNIL_sfc_thetae_051.txt.gz
Theta_e
358 358 356 356 357 357 358 358 358 359 360 359 359 361 362 366 367 367 367 368 368 368 368 369 370 369 369 369 368 366 366 367 366 365 366 365 363 362 360 360 361 360
358 358 358 358 358 360 360 359 360 360 361 362 362 363 365 367 366 366 367 367 368 367 369 368 369 369 369 368 367 365 364 364 365 365 365 366 365 364 362 363 361 362
358 357 357 357 356 357 355 359 361 360 360 361 363 365 364 365 365 367 367 367 366 365 368 368 368 369 368 369 369 366 363 364 363 364 365 365 365 364 365 360 360 362
358 358 356 356 356 357 357 359 360 360 360 360 361 362 362 363 364 365 366 367 367 367 367 368 367 368 369 369 369 365 364 364 364 366 365 365 365 364 365 364 362 362
357 358 357 357 357 359 359 359 357 358 358 358 360 362 364 364 364 363 365 365 367 366 367 367 368 368 369 369 368 364 363 362 364 364 362 362 365 364 364 365 364 363
359 359 359 358 358 359 358 357 357 357 358 357 359 360 361 363 363 362 363 363 363 363 363 365 366 366 367 368 367 364 363 362 363 363 361 362 363 364 363 365 366 364
357 358 358 358 358 359 358 358 358 359 358 358 360 359 360 360 361 362 363 363 362 363 362 364 366 366 367 368 367 364 362 363 363 363 361 361 363 363 363 365 366 366
357 358 358 358 357 357 358 357 358 358 359 360 359 359 360 359 361 361 363 362 362 363 364 364 366 368 366 367 366 364 362 361 360 362 361 361 362 362 364 364 365 365
357 357 358 358 356 356 356 356 357 358 359 359 357 357 359 359 359 360 362 363 362 362 364 364 366 366 366 366 366 365 364 363 362 362 361 361 361 362 364 366 364 364
357 357 356 356 355 355 355 356 356 357 359 358 357 357 357 359 360 360 362 364 362 362 363 364 364 364 364 365 366 366 365 364 365 365 365 364 364 365 365 366 365 365
356 356 356 356 355 355 356 356 356 356 358 357 357 356 357 358 359 361 362 362 360 361 362 363 363 364 364 363 364 365 365 364 365 366 366 366 365 366 366 366 366 364
356 355 355 355 355 355 356 356 356 356 357 357 357 356 357 357 359 359 360 361 361 361 362 363 364 364 364 364 362 363 364 364 365 366 365 366 366 366 367 367 365 365
355 355 356 355 356 356 356 357 356 356 356 356 357 357 357 356 358 359 360 360 361 361 361 362 363 363 364 364 363 364 364 364 363 364 365 365 366 365 365 366 366 365
355 357 358 358 358 359 358 357 357 357 357 357 358 357 356 357 357 358 360 360 360 361 361 362 363 362 364 364 364 363 363 363 363 363 363 364 365 365 364 364 365 365
357 358 359 359 358 359 358 358 358 358 358 359 359 358 358 358 358 358 358 359 359 360 360 361 360 360 361 362 362 363 363 362 362 362 362 362 363 363 364 365 365 364
359 359 359 360 359 359 359 359 358 359 359 359 359 358 359 359 359 359 358 357 358 359 360 360 360 360 352 338 344 361 363 361 362 362 363 362 363 363 363 363 364 364
360 359 360 359 359 359 360 359 359 359 359 359 358 359 358 360 359 358 357 357 357 357 358 358 359 358 338 332 333 336 356 362 361 362 364 363 362 363 362 362 363 364
358 359 358 358 359 359 359 359 359 358 358 359 358 357 359 359 358 358 358 357 357 357 357 358 359 343 332 330 331 330 337 359 360 361 361 361 362 361 362 362 362 362
359 358 358 358 358 359 359 359 359 358 357 357 356 358 358 358 358 357 358 358 357 358 357 357 358 339 330 329 329 328 328 341 358 360 359 360 361 362 361 362 363 362
359 358 357 358 359 359 359 358 357 357 357 357 357 358 358 357 357 357 358 359 358 358 359 358 358 340 328 326 326 326 327 332 357 358 359 360 361 361 361 362 362 362
358 358 357 358 358 358 358 357 357 357 357 357 356 356 357 357 356 357 357 358 358 357 357 357 357 336 326 324 323 322 324 328 356 358 359 360 361 362 363 362 362 363
357 358 358 358 358 358 357 357 357 358 357 357 357 356 357 357 357 357 357 357 358 357 356 356 357 332 325 323 321 321 323 342 354 358 358 359 360 362 362 364 364 364
356 356 357 357 358 357 357 356 357 358 358 359 357 356 355 355 357 356 358 357 358 358 357 357 357 340 323 321 320 319 325 350 354 356 358 358 359 361 362 363 364 364
357 357 357 357 358 357 357 357 357 358 358 359 356 355 354 356 357 357 358 358 357 357 357 357 357 344 321 319 318 317 329 352 356 356 357 358 358 361 362 363 363 355
358 358 358 357 358 357 357 357 357 358 358 359 357 357 356 358 358 357 357 359 358 357 349 353 357 347 321 319 317 316 329 353 355 355 355 356 356 357 360 361 362 357
359 359 359 358 358 358 358 358 359 358 358 358 358 357 357 357 357 357 357 357 359 358 357 356 356 358 349 318 316 314 318 350 355 354 353 354 356 355 356 359 360 362

ECMWFNIL_sfc_thetae_054.txt.gz
Theta_e
364 364 362 362 362 361 361 361 359 359 360 358 356 359 360 365 367 365 366 367 368 367 367 369 370 370 367 367 369 367 365 364 363 362 365 364 363 362 359 359 360 358
362 364 364 363 363 363 362 362 363 361 363 363 359 359 365 366 367 367 367 366 368 367 368 368 370 370 369 365 367 365 364 365 365 362 363 365 364 362 360 361 360 361
362 362 361 362 361 363 360 363 365 364 362 363 362 362 364 368 368 370 368 367 365 363 366 368 368 370 368 367 367 366 363 365 365 361 364 365 363 362 364 360 360 360
362 363 361 362 363 363 362 363 364 365 363 362 362 361 363 363 367 367 369 369 367 366 364 366 365 365 368 368 368 364 364 366 364 366 365 365 365 364 364 364 362 361
363 362 362 363 363 365 365 363 362 363 362 360 362 364 365 366 367 366 368 369 369 367 366 366 367 365 367 368 368 365 363 362 364 367 365 365 367 367 364 364 363 361
364 364 364 364 364 364 363 363 363 362 363 359 362 363 364 366 366 364 365 366 366 363 361 363 364 364 364 366 367 366 362 360 361 365 362 363 364 363 362 364 366 365
363 364 364 364 363 363 364 364 364 364 364 363 364 364 365 365 366 365 365 366 364 364 361 363 365 364 364 365 367 366 365 365 364 364 362 361 364 365 363 364 366 366
364 364 364 364 362 362 363 363 364 364 365 365 363 365 366 365 367 366 365 366 365 365 366 364 367 369 364 364 365 365 365 362 363 365 364 363 363 364 365 364 366 367
363 363 364 363 362 361 360 361 363 365 365 364 362 363 366 365 365 365 367 368 366 365 367 367 368 368 367 364 364 366 366 363 362 364 364 363 363 364 365 366 365 366
363 363 362 361 360 360 360 361 361 362 364 363 363 362 363 366 365 365 367 369 368 367 367 369 368 367 367 367 366 366 366 366 365 365 365 365 364 364 364 364 365 366
362 361 361 361 360 359 360 361 360 360 363 363 363 361 362 364 365 366 367 368 367 367 368 368 368 369 368 366 366 367 367 365 366 366 367 366 366 366 365 365 365 365
362 361 361 361 361 360 359 360 359 359 361 363 363 362 362 362 365 365 365 367 369 369 369 369 369 369 369 368 364 364 366 366 365 366 366 368 367 366 366 367 366 366
360 360 362 361 361 360 360 360 360 359 359 361 363 362 361 360 363 366 366 367 369 369 367 369 369 368 369 370 367 365 365 366 363 363 365 366 367 366 364 364 366 367
361 363 363 363 363 364 363 361 361 360 361 362 364 363 361 361 361 364 366 366 367 368 368 368 369 369 370 371 370 366 364 365 366 364 362 364 366 366 365 362 363 365
364 364 365 365 364 365 364 363 363 363 363 364 365 364 363 362 362 363 365 365 366 367 367 367 366 366 367 369 369 368 366 363 364 366 364 362 364 364 365 365 363 361
365 366 365 366 365 365 366 365 364 365 364 365 365 365 365 365 365 364 363 364 364 366 366 365 365 365 360 344 351 367 367 363 364 365 366 364 364 364 363 363 364 363
365 365 366 366 366 367 367 366 366 365 366 366 366 366 366 367 365 363 362 363 364 364 364 364 363 362 343 334 336 342 362 367 364 365 367 367 365 366 365 363 363 364
365 366 366 366 367 367 367 368 366 366 366 367 365 365 367 366 364 364 365 363 363 363 363 363 363 348 333 332 334 334 343 365 365 365 364 365 366 365 365 364 363 361
366 366 366 367 367 367 368 367 367 367 366 365 364 366 366 366 367 365 365 364 363 363 362 362 363 342 330 330 331 331 332 346 360 363 362 362 364 366 366 366 366 364
367 367 366 367 368 368 368 367 366 366 366 365 365 366 366 366 365 365 366 366 365 364 364 364 364 341 328 327 328 328 329 337 360 360 361 361 364 365 365 367 367 368
367 367 367 367 368 367 367 367 366 367 366 365 363 363 365 365 365 365 366 366 365 364 363 362 362 333 326 324 324 324 326 332 360 359 361 362 363 365 367 367 368 369
366 366 367 367 367 367 366 366 366 366 366 365 364 363 365 365 365 365 365 365 365 365 362 362 362 331 323 323 322 322 325 348 359 360 360 361 363 364 366 368 369 369
366 365 366 366 366 366 365 365 365 366 366 366 363 362 361 362 364 363 366 364 364 365 364 363 363 341 321 320 320 320 328 356 359 359 361 361 362 364 365 367 368 370
366 366 365 365 366 365 364 365 365 366 365 366 363 361 359 361 363 363 364 365 363 364 363 363 363 346 320 318 318 318 334 358 360 359 361 361 362 365 366 366 368 364
365 366 365 365 365 365 364 364 364 365 366 366 363 363 361 363 363 362 363 364 362 363 355 359 363 349 319 319 316 316 335 360 360 360 360 361 361 363 365 366 367 364
366 366 366 365 366 366 366 365 365 365 365 364 363 363 362 360 361 362 362 362 363 363 362 362 362 366 344 316 316 315 321 358 361 359 359 360 362 362 363 366 366 368

ECMWFNIL_sfc_thetae_057.txt.gz
Theta_e
365 365 362 360 359 357 358 360 359 358 356 354 354 358 355 361 362 361 361 363 366 366 366 368 370 369 366 366 368 367 364 364 362 363 364 365 364 362 359 358 358 356
365 366 365 363 362 362 361 361 362 360 359 359 356 357 360 361 362 361 362 362 365 366 368 366 368 370 368 365 367 366 365 365 363 361 362 364 364 363 361 361 359 360
365 365 364 363 361 362 359 361 363 362 359 358 357 359 358 360 362 364 364 363 365 363 365 367 367 369 367 366 367 365 363 366 364 360 363 363 363 362 364 360 359 359
367 366 365 363 362 362 362 360 362 363 361 360 358 355 357 357 361 364 365 366 365 364 362 365 365 365 367 366 367 364 364 366 365 365 362 364 364 363 364 363 361 359
366 365 365 365 363 365 365 361 360 362 360 360 361 360 359 361 362 362 364 364 365 363 363 364 365 363 366 366 367 365 363 362 365 366 364 364 366 365 362 363 363 360
365 366 367 364 364 365 363 363 362 361 362 358 361 361 358 360 361 360 363 362 362 361 358 361 363 362 363 365 366 365 362 359 360 365 365 365 364 363 360 361 363 362
362 365 364 363 363 365 365 365 364 363 362 359 363 360 360 359 361 363 364 363 362 361 358 360 364 363 363 364 365 365 365 363 362 364 364 364 365 363 361 361 363 363
363 364 365 364 362 364 364 365 363 362 364 364 359 361 361 360 363 362 362 362 361 360 361 359 364 365 361 362 363 364 364 362 362 363 365 365 364 364 365 363 362 364
363 364 365 363 361 362 362 363 363 364 364 363 359 359 362 362 363 362 363 364 363 362 363 360 364 363 362 362 363 364 364 361 359 361 363 363 362 363 364 366 363 363
364 364 362 361 360 360 361 361 360 362 363 363 361 357 359 363 363 364 363 366 363 363 364 363 362 363 363 362 362 363 364 364 362 362 362 363 363 362 362 363 362 363
362 362 361 360 360 360 360 360 358 359 362 362 361 357 357 361 364 365 366 366 363 363 364 365 364 366 366 363 362 362 364 364 364 363 363 364 364 364 364 364 363 362
361 360 360 361 360 359 358 359 357 356 358 362 362 359 357 358 363 363 364 367 368 366 366 367 368 368 368 366 361 361 362 363 364 364 362 364 365 364 363 364 363 364
360 360 361 360 360 359 358 358 357 356 356 359 361 360 357 355 359 364 365 367 369 368 367 368 369 368 369 368 365 363 362 363 361 362 362 363 365 364 361 361 362 363
360 361 362 362 362 364 361 358 358 356 356 358 362 360 358 356 356 362 364 366 369 369 369 370 370 368 370 371 368 363 362 363 363 361 360 362 363 363 361 357 358 360
364 363 362 364 364 365 362 360 360 360 360 360 363 362 359 358 357 359 364 365 367 369 369 368 367 367 367 368 368 366 363 361 363 363 360 359 360 359 361 360 357 355
368 367 366 365 365 367 367 364 362 362 360 362 361 362 364 362 362 360 361 364 364 367 367 366 367 367 361 349 356 367 365 359 361 364 363 361 360 360 358 358 359 357
368 367 368 368 369 368 368 367 366 362 363 366 365 364 366 368 363 358 357 361 363 363 365 364 363 362 346 338 341 348 365 365 360 362 365 364 360 362 361 358 358 359
367 369 368 368 369 369 369 369 366 365 366 365 362 363 367 364 361 360 362 359 361 362 362 363 362 350 334 335 337 338 349 367 362 360 360 362 363 359 360 361 359 355
369 368 368 368 369 369 370 369 368 367 364 362 361 365 366 367 367 363 363 361 360 362 361 362 362 341 331 333 335 335 336 352 361 360 357 358 361 362 360 362 362 359
369 369 368 370 370 370 371 369 367 367 365 364 364 366 367 366 365 365 365 366 363 363 365 363 363 338 330 329 332 331 334 341 363 358 359 357 359 360 362 362 362 362
370 370 370 370 371 371 371 369 368 368 367 366 364 365 367 367 365 365 365 365 362 361 363 362 359 332 327 326 327 328 330 337 363 359 359 360 361 362 364 364 365 365
369 369 370 371 371 370 370 370 369 370 369 368 366 363 366 368 368 365 365 365 365 363 361 361 360 325 326 325 325 326 328 352 362 362 361 360 361 363 364 367 367 368
369 369 370 370 370 370 371 369 369 370 370 370 366 363 362 364 367 365 367 367 367 366 363 362 362 334 323 322 323 323 331 359 361 361 362 362 362 364 364 366 367 369
370 370 370 370 371 370 370 370 370 370 369 370 366 362 359 362 365 365 365 367 366 366 365 363 362 344 318 320 320 319 337 360 362 361 362 363 363 365 366 367 368 370
370 370 370 371 370 370 369 369 369 370 370 370 366 365 362 362 363 363 363 365 364 365 360 361 362 348 317 320 318 317 339 364 363 362 361 362 363 363 366 366 368 368
371 371 371 371 371 371 370 370 370 369 369 368 368 365 362 360 358 360 361 362 362 364 365 364 364 362 336 317 316 316 324 362 364 362 360 361 363 362 364 366 366 368

ECMWFNIL_sfc_thetae_060.txt.gz
Theta_e
358 357 355 354 353 351 355 358 356 356 357 354 356 356 358 362 365 364 364 366 369 368 370 372 372 372 369 374 375 372 371 370 373 369 369 369 367 362 358 357 360 363
359 359 358 356 356 356 357 360 361 359 360 360 357 361 360 364 362 366 363 365 367 366 370 369 371 371 371 369 372 371 370 373 369 361 367 367 369 364 359 361 360 366
360 361 359 355 354 355 350 357 363 362 361 358 359 364 360 361 360 366 364 364 364 363 369 369 370 371 370 371 372 369 367 371 367 362 369 368 368 366 368 358 359 360
361 360 358 355 354 355 353 355 361 363 360 359 356 357 359 356 360 362 365 366 365 366 366 366 367 367 369 369 370 369 368 370 368 372 371 370 369 366 366 367 362 361
361 361 360 358 358 359 356 355 354 359 358 359 357 357 361 363 362 361 363 363 366 366 366 367 367 366 369 369 369 368 366 366 368 370 370 369 370 367 364 366 369 364
363 362 364 361 360 361 359 356 357 358 358 356 359 357 357 364 361 361 361 361 362 362 361 362 364 363 366 367 367 366 364 361 364 368 366 367 364 365 361 366 368 367
361 363 361 362 358 361 360 359 358 359 358 358 361 358 357 357 361 361 362 362 361 362 360 360 364 363 364 366 366 367 368 367 367 366 365 365 368 367 362 364 367 366
360 360 361 361 357 357 359 361 359 359 362 361 358 361 360 355 360 360 364 363 362 362 361 362 365 365 362 364 365 365 365 362 363 367 365 365 367 366 366 364 366 367
363 361 360 360 356 357 357 358 359 359 363 361 357 357 361 358 358 358 362 363 362 362 363 362 366 364 363 363 364 365 364 361 360 363 364 363 363 364 364 365 365 365
362 363 360 358 358 355 356 358 359 358 362 361 358 357 358 360 359 359 362 364 363 364 363 361 364 363 362 363 364 364 364 364 363 362 362 363 363 363 362 364 363 363
360 360 359 357 356 355 357 358 359 359 360 359 358 356 358 358 360 362 363 365 362 363 362 361 364 362 361 360 362 363 364 363 363 364 363 363 363 364 366 364 363 362
358 357 357 357 356 356 357 358 358 360 359 359 359 357 358 357 360 361 362 364 363 363 364 362 363 363 362 361 359 361 363 363 363 363 362 363 364 364 365 365 363 363
357 358 359 359 357 356 357 358 358 358 359 358 359 358 355 356 358 361 363 364 364 364 363 363 363 363 364 364 362 361 362 362 361 362 361 362 363 363 363 363 363 363
359 359 360 360 359 359 359 359 359 359 360 360 360 359 355 355 357 359 364 364 364 364 364 365 365 363 365 366 364 362 361 362 362 362 361 361 361 363 362 361 362 361
360 361 362 363 361 360 360 360 359 359 360 361 361 360 358 355 356 358 360 361 363 364 363 364 364 363 364 366 365 363 362 360 361 361 361 360 360 360 362 363 361 359
363 362 362 363 362 361 362 361 360 361 360 360 362 361 361 359 357 359 360 360 361 365 365 363 363 363 358 348 353 362 361 358 361 361 360 360 361 360 360 361 360 358
364 363 363 363 363 363 362 362 362 361 361 361 362 361 361 363 359 358 359 360 360 362 364 363 362 361 347 338 341 348 360 360 360 362 363 361 361 361 359 358 359 359
364 364 363 363 363 363 363 363 363 362 361 361 361 361 362 362 360 358 358 360 361 362 363 364 364 352 336 335 337 338 349 361 360 361 362 362 361 359 360 359 358 357
365 364 364 363 364 364 364 363 363 362 361 360 360 362 362 361 360 359 358 359 361 362 362 364 364 345 332 332 335 335 337 353 359 358 357 360 360 360 359 359 359 358
366 365 364 364 365 365 364 363 362 362 361 360 359 361 362 361 361 360 360 360 360 363 363 363 363 341 329 329 332 333 335 342 362 359 357 357 360 362 360 360 361 360
367 366 365 365 365 366 365 363 362 362 361 359 356 358 361 362 360 359 360 360 359 362 363 360 361 333 326 326 328 329 333 339 363 362 359 358 360 362 363 361 362 362
367 366 366 366 366 366 365 364 362 363 362 360 357 356 360 363 364 361 360 360 360 359 359 359 358 327 325 325 326 328 331 350 361 362 360 360 361 361 362 364 364 364
366 366 367 367 366 365 365 364 363 363 363 363 359 357 356 359 361 360 362 360 360 360 359 360 361 331 323 323 324 326 333 356 361 360 360 359 360 365 365 365 366 366
367 367 367 367 366 365 365 365 364 364 363 364 360 357 355 358 362 363 363 361 360 360 359 360 361 339 318 321 323 322 336 358 359 360 359 359 359 362 366 368 367 370
369 368 369 369 367 367 366 365 364 364 364 365 361 360 360 363 364 363 361 362 360 360 356 359 359 345 315 321 319 320 336 358 360 360 359 358 359 359 362 363 365 366
369 370 370 369 370 369 370 369 367 364 364 362 362 360 360 360 362 362 362 361 360 362 363 361 358 360 328 318 317 317 325 359 362 360 357 358 359 360 359 360 361 364

ECMWFNIL_sfc_thetae_063.txt.gz
Theta_e
347 348 344 345 346 347 342 342 344 347 346 349 351 353 354 355 356 357 361 361 361 361 364 360 364 361 362 362 362 363 361 359 360 361 360 361 360 358 358 353 352 350
347 348 348 345 345 349 346 344 345 346 348 347 349 351 354 355 356 356 359 360 361 360 363 362 362 362 361 361 360 358 360 363 359 362 359 360 359 358 357 355 353 351
347 347 347 344 343 345 349 347 347 345 348 349 350 350 353 356 356 356 357 359 359 360 361 363 361 363 362 361 361 360 358 358 356 358 358 358 359 358 358 357 354 355
348 347 347 345 344 344 349 349 349 347 348 350 349 352 352 356 354 358 356 364 359 359 361 362 362 362 362 362 361 359 360 359 359 358 359 359 359 357 357 356 357 353
349 348 347 346 345 345 345 350 351 350 350 350 351 353 353 351 353 356 355 359 358 358 360 361 361 362 362 361 362 359 360 359 359 359 358 358 358 358 358 359 356 355
350 349 348 347 345 345 344 346 352 353 352 352 351 353 354 351 352 353 356 357 358 358 359 360 360 361 362 361 361 359 359 360 359 359 358 357 359 358 358 357 356 356
350 350 349 348 346 346 345 344 348 354 354 354 353 350 353 352 352 352 356 356 357 358 359 359 359 360 361 361 360 359 358 358 357 359 357 356 358 357 357 356 357 356
350 351 351 349 347 347 346 345 345 350 354 354 353 351 350 354 353 353 355 355 356 357 358 359 359 359 360 360 359 358 358 360 358 358 357 355 357 356 358 358 357 355
351 351 351 350 348 348 348 347 347 348 353 353 353 353 351 351 355 354 354 355 355 356 356 357 357 358 359 359 359 358 357 359 358 359 357 356 356 357 357 358 356 356
351 351 351 351 350 349 350 349 349 349 353 353 353 354 352 350 355 355 355 355 354 355 356 356 356 357 357 358 358 358 358 357 356 357 358 357 357 358 358 358 356 355
352 352 351 352 351 351 351 352 351 351 352 353 353 353 354 351 352 354 355 355 355 355 356 355 356 357 357 357 358 359 358 358 357 355 357 357 357 357 363 357 357 355
353 353 352 352 352 351 351 352 353 352 352 354 354 353 354 353 351 353 356 356 355 356 356 356 357 357 357 356 357 358 358 358 358 357 355 357 357 357 359 358 357 357
354 354 353 352 352 352 351 352 352 353 353 353 355 354 353 353 352 351 355 356 356 357 357 356 356 358 357 356 356 357 358 358 358 357 357 356 357 358 358 359 358 357
355 355 354 353 352 352 351 351 352 353 353 354 355 354 353 353 353 352 353 356 356 356 357 357 356 357 356 356 355 356 356 357 357 357 357 356 356 357 358 358 359 359
356 356 356 354 353 352 351 351 352 353 354 354 355 355 354 353 354 354 353 355 356 356 357 358 356 356 357 356 355 354 355 356 356 356 356 355 355 355 357 357 358 358
357 357 356 355 353 352 351 351 352 353 354 354 354 354 354 353 353 354 354 354 356 356 356 357 357 356 354 344 348 355 354 356 356 356 356 355 354 354 355 356 357 358
357 356 355 354 354 352 351 351 352 353 354 354 354 354 354 353 352 353 354 355 355 356 356 356 358 356 343 336 338 344 354 355 354 355 355 355 355 354 353 354 356 357
356 356 354 354 354 353 351 352 353 353 353 354 354 354 354 353 351 352 354 355 355 356 356 356 357 348 335 334 336 336 345 356 355 354 355 355 355 355 354 354 354 356
356 355 354 354 354 354 353 352 353 353 353 353 354 354 354 353 351 352 353 355 355 355 355 356 356 343 332 332 334 334 336 350 355 354 354 354 354 354 354 354 353 354
357 356 355 355 355 354 353 352 352 353 353 354 355 355 354 353 353 351 353 354 355 355 356 357 357 344 330 329 330 331 333 341 356 354 354 355 355 354 355 354 354 353
357 356 355 355 355 355 354 353 353 353 353 353 354 354 353 353 353 351 352 354 355 355 356 358 360 339 328 326 326 327 331 337 355 355 353 353 355 356 355 355 354 354
358 356 356 356 356 355 354 353 353 353 353 353 353 354 355 354 354 354 352 353 355 356 355 356 360 334 327 325 325 325 329 344 353 354 352 351 351 354 356 356 355 354
358 357 357 356 356 355 355 354 353 353 354 354 352 353 354 353 353 353 353 353 353 356 356 356 358 337 326 323 323 324 329 349 353 354 353 352 352 352 354 356 356 355
359 358 357 357 356 355 355 355 355 354 354 356 353 351 352 354 354 354 354 354 352 353 356 356 357 340 322 322 321 322 332 351 353 354 353 353 353 353 355 356 357 365
360 359 358 357 356 356 357 356 355 355 355 356 355 353 352 354 355 354 353 354 354 353 351 354 357 342 318 322 320 320 331 352 354 354 353 353 352 351 352 354 356 364
360 360 359 358 357 357 358 357 358 356 355 355 355 353 351 352 354 354 353 354 354 354 354 353 353 353 330 318 318 318 323 351 354 353 352 352 352 351 350 350 351 353

ECMWFNIL_sfc_thetae_066.txt.gz
Theta_e
343 342 344 342 339 340 341 340 339 344 347 348 349 350 350 354 358 359 359 359 359 358 358 357 359 357 357 357 355 357 358 358 358 358 357 357 354 354 355 352 348 345
342 343 346 344 341 341 340 342 341 342 346 348 349 350 350 352 356 358 358 359 359 358 359 358 358 357 354 357 357 356 356 356 356 361 356 356 356 355 354 353 351 348
342 343 343 343 341 340 340 341 342 343 346 348 349 350 350 353 354 356 357 358 358 358 359 359 358 358 356 356 356 356 356 355 354 358 357 356 356 355 354 354 352 351
343 343 342 343 343 341 341 340 340 342 345 346 348 351 352 354 353 354 355 362 357 357 357 359 358 359 357 357 356 355 355 356 356 357 356 356 357 356 355 354 355 352
344 343 343 342 343 344 343 340 339 340 343 345 347 349 352 352 352 353 353 357 357 357 356 358 358 358 358 357 356 354 355 354 355 355 354 353 354 355 355 354 353 352
346 344 344 343 342 343 344 342 340 340 340 343 345 348 349 351 352 353 352 354 356 356 356 356 358 358 358 357 357 355 355 355 355 355 354 354 354 355 356 355 353 352
345 345 343 344 342 341 343 344 342 342 340 341 345 346 347 348 350 351 353 353 355 355 355 355 357 358 358 357 357 355 355 356 355 355 353 353 355 354 355 353 353 351
346 346 345 344 343 341 341 343 344 344 343 342 342 345 347 346 346 349 352 353 354 354 354 355 357 357 358 357 357 356 355 357 356 355 353 353 353 353 354 354 352 351
347 346 346 344 343 342 341 340 343 345 346 344 343 344 347 348 346 346 349 352 353 354 354 355 356 357 358 358 357 356 355 355 356 355 354 353 352 353 354 354 352 351
347 347 346 345 343 342 341 341 340 343 348 347 346 346 346 349 349 347 347 349 352 353 354 354 355 356 357 358 357 357 356 355 355 355 355 354 353 353 353 354 353 352
347 347 346 345 344 343 342 342 341 340 344 348 348 347 347 347 349 350 348 348 350 352 353 354 355 356 356 357 358 358 357 356 355 355 355 355 354 354 358 353 353 353
347 347 346 346 345 344 343 342 342 341 340 345 349 348 349 348 347 350 350 349 350 351 352 353 354 355 355 356 357 358 357 357 356 355 355 355 355 354 355 355 354 354
348 347 347 346 347 346 345 344 342 342 341 341 347 349 349 349 348 348 351 351 350 351 351 352 353 354 355 355 356 356 356 356 355 355 354 354 355 355 355 356 356 355
349 349 347 347 347 347 346 345 344 343 342 342 344 346 348 349 349 348 349 351 351 351 352 352 353 353 354 354 355 355 355 355 355 355 354 354 354 354 355 355 356 356
352 351 350 349 349 348 347 346 345 345 345 344 344 346 348 349 350 349 348 349 352 352 352 352 352 353 354 354 354 354 354 355 355 355 354 354 353 353 354 355 355 356
353 353 352 350 349 348 348 348 347 347 347 346 346 346 347 349 349 350 349 349 350 351 352 353 353 354 350 342 345 354 353 354 355 355 354 354 353 353 353 354 355 356
347 353 353 352 351 350 349 349 348 348 347 348 348 348 348 349 350 349 349 349 349 351 352 352 353 353 341 335 336 341 352 353 353 354 354 354 353 352 352 353 354 355
346 346 351 353 352 351 350 349 349 348 347 348 348 348 349 350 350 349 350 350 350 350 351 352 353 345 335 332 334 334 341 354 353 353 354 353 353 353 352 352 352 353
347 346 347 352 353 352 351 350 349 348 347 347 348 349 350 349 350 350 350 350 350 349 350 352 353 342 332 330 331 332 333 345 353 352 352 353 353 353 352 352 351 352
348 348 349 352 354 353 352 351 350 348 348 348 349 350 350 350 350 349 350 350 350 350 350 351 352 342 330 328 328 329 331 337 352 352 352 352 353 353 353 352 352 351
348 348 350 353 354 354 353 351 350 349 349 349 349 349 350 350 349 349 349 350 351 351 350 351 353 338 328 326 325 326 328 333 350 352 352 352 352 353 353 353 353 353
348 348 351 354 354 354 352 352 351 350 349 349 350 350 351 351 351 351 350 350 350 351 351 350 353 333 327 325 324 324 327 339 347 350 351 351 351 352 353 353 353 353
349 349 351 354 355 353 352 352 351 350 350 350 349 349 350 351 351 351 351 350 350 351 351 351 352 338 325 323 322 323 326 342 346 349 351 350 350 351 352 353 353 353
350 351 352 355 355 354 353 353 352 352 351 351 349 349 349 350 352 352 352 351 350 350 351 351 352 341 322 321 321 321 329 344 347 348 349 350 351 351 350 351 354 361
352 353 354 355 355 355 354 353 353 352 352 352 351 351 350 351 352 352 352 352 351 351 348 350 352 344 322 321 319 319 329 346 349 349 349 350 351 351 351 350 350 358
352 354 355 356 356 355 355 355 355 354 352 352 351 351 351 351 352 352 351 351 352 351 352 352 352 353 338 319 319 317 321 346 350 349 349 349 351 351 350 350 350 351

ECMWFNIL_sfc_thetae_069.txt.gz
Theta_e
342 341 339 338 338 339 339 341 343 346 347 349 349 351 352 353 356 356 357 357 357 357 357 357 357 357 358 356 355 353 355 355 356 355 354 353 351 349 351 348 345 342
342 342 343 340 339 341 339 340 341 344 346 347 349 350 351 352 354 356 356 357 357 357 357 356 356 356 355 355 353 352 352 354 354 358 354 352 352 351 351 349 348 345
342 342 341 341 339 338 339 339 340 341 345 347 348 349 350 351 353 355 356 357 356 357 356 356 355 355 355 353 353 353 353 352 353 355 355 353 353 352 351 351 348 347
341 341 342 342 341 338 338 339 339 339 341 344 345 348 350 351 352 354 355 361 356 356 356 356 356 355 355 353 353 352 352 353 354 354 354 354 354 353 352 349 351 348
341 341 341 342 342 341 338 338 339 339 339 343 345 347 349 349 349 352 354 355 356 355 355 356 356 355 355 353 352 352 352 352 353 352 352 352 353 353 353 350 348 349
343 342 342 341 342 341 338 337 338 340 340 341 344 348 348 348 349 350 352 353 355 355 355 355 356 356 356 354 353 352 352 352 353 351 351 352 352 353 354 351 348 348
343 342 341 341 341 341 340 338 338 340 340 342 344 345 347 348 348 349 350 352 354 355 354 354 354 355 356 355 353 352 351 351 351 351 351 351 352 351 352 351 350 349
344 344 342 341 340 340 341 340 339 338 339 340 342 344 346 348 348 349 350 350 352 353 354 354 354 355 355 355 354 353 352 353 352 351 350 350 349 350 351 352 351 349
343 343 343 342 340 339 339 341 341 340 339 338 339 342 345 346 347 348 349 349 350 351 352 353 353 354 355 355 354 353 353 353 353 352 351 350 349 350 351 351 350 349
343 343 343 342 341 340 339 339 340 342 342 339 338 338 341 345 345 346 347 348 349 350 350 351 352 353 354 354 355 354 353 353 353 353 352 352 351 350 351 351 351 349
343 343 342 342 342 342 341 340 339 339 341 342 340 338 338 340 344 344 343 345 348 349 350 350 351 352 353 354 355 355 354 354 353 353 353 353 352 351 355 350 351 351
345 344 343 343 342 342 341 341 340 339 339 341 343 341 340 339 340 343 344 342 344 346 348 350 351 352 352 353 354 355 355 354 354 354 353 353 353 352 352 352 351 351
346 345 345 344 344 343 343 342 341 340 339 338 341 343 342 341 341 341 344 344 343 344 345 348 350 351 352 353 354 354 354 354 354 353 353 353 353 353 353 352 352 352
347 347 346 346 345 345 344 343 342 341 340 340 340 340 342 343 342 342 342 345 344 344 345 347 348 350 351 352 353 353 354 354 354 354 353 353 353 353 353 353 353 353
348 348 348 347 347 346 345 344 343 342 341 341 340 339 342 343 344 344 343 343 345 346 346 347 347 349 351 352 352 352 353 353 354 354 353 352 352 352 352 353 353 354
348 348 348 347 347 346 345 345 344 344 342 341 340 339 339 341 343 345 344 344 344 345 346 347 348 349 347 340 344 353 352 353 354 353 353 353 352 351 351 352 353 353
348 348 348 347 346 346 346 345 345 345 343 342 341 340 339 340 342 342 344 345 344 344 345 347 348 348 338 333 334 339 351 352 352 352 353 353 352 351 351 351 351 352
349 349 348 348 347 346 346 346 346 345 344 343 342 341 341 340 340 341 342 344 345 345 345 346 348 341 332 330 332 332 340 353 352 352 352 352 352 351 352 351 351 351
349 349 349 349 348 348 347 347 346 345 344 344 343 343 342 341 340 341 341 343 344 344 344 346 347 338 331 329 329 330 331 343 352 351 351 351 351 351 351 351 351 351
349 348 347 349 350 350 349 347 346 345 345 345 345 345 344 343 343 342 342 343 344 344 345 346 346 338 330 326 326 327 329 335 351 351 351 351 351 351 352 351 351 350
348 348 348 349 350 351 351 349 348 347 346 346 346 345 344 344 344 343 344 345 345 346 345 346 347 335 327 325 324 324 326 331 348 351 351 350 350 351 351 351 351 351
349 349 349 349 349 350 351 351 350 349 347 348 347 347 346 346 346 346 345 346 346 346 346 346 348 331 326 324 323 322 325 337 344 348 349 350 350 350 351 352 352 351
348 349 349 349 349 349 349 351 351 350 350 350 348 347 346 346 346 346 347 347 347 347 346 347 348 336 324 322 321 321 324 339 343 346 348 349 349 350 350 351 351 352
348 349 349 350 349 349 350 351 352 352 351 352 349 348 347 347 347 347 347 348 347 347 348 347 347 339 323 320 320 319 328 340 343 345 346 348 348 350 350 350 352 360
349 349 349 349 349 350 351 352 352 353 353 352 351 350 349 349 349 347 347 348 348 348 345 347 348 341 322 320 318 317 327 342 344 345 345 346 347 348 349 350 349 355
350 350 349 349 349 350 351 353 354 354 353 352 351 351 350 349 349 348 347 348 349 349 349 348 348 349 339 319 318 316 320 342 346 345 344 345 346 347 347 348 349 349

ECMWFNIL_sfc_thetae_072.txt.gz
Theta_e
343 342 340 340 340 341 344 347 348 350 350 352 353 354 355 357 359 359 360 360 360 360 359 360 361 361 361 361 361 358 359 358 359 358 358 357 356 355 354 353 351 350
343 343 344 341 341 343 343 346 347 349 349 351 353 354 355 356 357 359 359 359 360 360 360 359 360 360 360 360 359 358 357 358 358 360 358 357 357 356 355 355 354 352
343 343 342 340 339 340 341 343 346 347 348 350 352 353 353 356 356 358 359 359 359 360 360 360 359 360 360 359 358 358 357 356 357 359 360 358 357 357 357 356 355 354
344 343 342 342 341 340 341 341 343 345 347 348 349 351 353 354 355 356 357 362 359 359 360 359 359 359 359 359 358 357 357 357 357 359 359 360 359 358 358 357 357 356
344 343 343 343 342 342 341 340 340 341 343 346 348 350 353 353 353 354 356 358 359 359 359 359 359 359 359 358 358 357 357 356 357 358 358 358 359 359 358 358 357 356
344 344 344 344 343 342 340 339 340 340 341 342 345 350 350 351 352 353 355 356 357 358 358 358 358 359 359 359 357 357 357 356 357 357 356 357 357 358 358 358 357 356
343 343 343 344 343 343 341 340 340 342 341 342 345 346 349 349 350 351 353 355 356 358 357 358 358 358 359 359 358 357 356 357 357 356 356 356 357 357 357 358 358 356
344 343 343 343 342 342 343 341 340 341 342 343 342 344 348 349 349 350 352 354 355 356 357 358 358 358 358 358 357 357 356 355 355 356 356 356 356 356 357 357 357 357
345 344 343 342 341 341 342 342 341 340 342 342 341 342 347 348 348 350 351 352 354 355 356 357 357 357 358 358 358 357 356 356 356 356 356 355 354 356 356 357 356 356
344 344 343 342 341 341 341 342 342 341 342 340 341 343 344 348 349 350 350 351 351 353 355 356 356 356 357 357 357 357 357 357 357 356 356 356 355 355 355 356 356 356
344 344 343 342 341 341 341 341 342 342 342 340 340 340 343 345 348 350 350 350 350 351 352 354 355 356 356 356 357 357 357 357 357 357 357 357 356 356 357 356 356 355
343 343 343 343 343 342 341 341 341 341 342 343 341 339 340 342 345 347 348 349 350 351 351 352 354 355 355 355 356 356 357 357 357 357 357 357 357 357 357 357 356 356
343 343 343 343 344 344 343 342 341 341 341 341 344 342 340 339 341 344 347 347 348 350 351 352 352 354 354 355 355 356 357 357 356 356 357 356 357 357 357 357 357 356
344 345 344 344 344 345 345 344 343 342 341 341 342 343 342 341 340 340 343 346 346 347 349 351 352 353 353 354 355 355 356 356 356 356 356 356 356 357 357 357 357 357
346 346 346 346 346 345 345 344 344 344 343 342 342 341 342 343 343 342 341 342 344 345 346 347 349 351 352 353 353 354 355 355 356 356 356 356 356 356 356 357 357 357
347 347 347 347 346 346 345 345 345 344 344 343 342 341 341 343 343 344 343 342 342 344 345 345 346 347 347 339 343 353 354 354 355 356 356 356 356 356 355 356 356 356
347 348 348 347 347 347 347 346 346 345 345 344 343 342 342 342 343 342 342 343 343 343 343 345 346 346 337 332 333 337 351 354 354 355 356 356 356 356 355 355 355 356
347 348 348 348 348 347 347 347 347 346 346 345 344 343 343 342 341 341 342 343 343 344 343 344 346 339 331 330 331 331 338 353 354 354 354 355 356 355 355 356 355 355
347 347 348 348 348 348 348 348 347 347 346 345 344 345 344 343 342 341 341 342 343 343 343 344 345 336 329 328 329 329 330 342 353 354 353 354 355 355 355 355 356 355
347 348 348 348 349 349 349 348 347 347 346 347 346 346 345 343 343 342 342 342 342 342 344 345 345 336 328 325 326 327 328 334 352 353 354 354 354 355 355 355 355 355
348 348 348 349 349 349 349 348 348 348 347 347 347 346 345 344 343 343 342 343 342 342 343 343 344 333 326 324 323 323 326 331 349 352 353 353 354 354 355 355 355 355
349 349 349 350 349 350 349 348 348 348 347 348 348 347 347 347 346 345 344 343 343 343 342 342 344 329 324 323 322 322 324 337 346 350 351 352 353 353 354 355 356 356
350 349 349 350 350 349 349 349 349 349 349 350 348 347 346 346 346 345 346 345 345 344 343 343 344 334 323 321 320 320 324 340 345 348 350 351 351 353 354 354 355 356
350 350 350 350 350 349 349 350 351 351 351 351 348 347 347 347 347 347 347 347 346 345 345 344 345 338 322 319 318 318 327 342 344 346 348 349 351 353 354 354 355 358
350 350 350 349 350 351 351 350 351 352 353 353 351 350 349 350 350 349 348 348 348 347 344 345 346 340 323 319 317 316 326 343 345 346 346 348 349 350 353 353 354 356
344 349 350 349 349 351 352 352 353 353 353 353 354 353 351 351 351 350 349 348 349 349 349 347 347 348 342 319 317 315 318 343 347 345 346 347 348 349 350 352 353 353

ECMWFNIL_sfc_thetae_075.txt.gz
Theta_e
356 356 354 353 353 354 357 358 358 360 363 362 362 364 365 367 369 369 369 369 369 368 369 370 371 371 369 371 372 370 369 368 367 367 368 365 364 362 358 359 360 359
356 356 356 354 355 356 357 358 360 361 364 365 364 365 368 369 368 369 369 369 370 368 371 370 370 370 370 368 371 369 369 369 368 366 367 367 365 363 360 361 359 363
356 355 354 353 351 352 350 355 359 361 361 361 364 366 365 366 366 369 369 369 368 367 370 370 370 371 369 370 370 368 367 369 368 366 368 368 365 364 364 359 359 362
356 356 353 352 352 352 352 354 356 359 359 360 361 362 363 362 365 367 368 369 369 369 369 369 369 368 370 370 370 367 367 369 367 369 368 368 368 366 365 365 363 362
355 355 354 354 353 354 354 352 351 354 355 357 359 362 364 364 365 364 366 367 369 368 369 369 370 369 370 370 370 367 367 365 367 370 367 367 369 368 366 366 365 362
356 357 356 354 355 355 352 351 352 352 354 354 357 359 360 363 363 363 364 364 365 365 364 366 367 367 368 369 369 368 366 364 364 369 366 365 365 366 364 366 367 364
353 355 354 354 353 353 352 352 352 353 352 353 358 357 359 359 361 363 364 364 363 365 364 366 368 367 368 369 369 368 369 369 368 368 366 364 366 365 364 366 367 366
353 353 354 354 352 352 352 351 352 352 353 354 353 356 358 357 360 360 362 363 363 364 366 366 369 369 367 367 367 367 367 365 366 368 367 365 366 365 366 364 366 367
352 353 353 353 351 351 350 350 351 351 353 352 349 351 356 356 357 357 361 363 362 363 366 366 368 367 367 367 366 367 366 365 364 365 365 364 363 364 364 366 364 365
353 352 351 351 350 350 350 350 350 350 352 350 350 349 351 355 357 357 360 362 361 362 365 365 366 365 366 366 366 367 366 366 367 366 365 364 362 363 363 364 363 364
351 351 350 350 349 349 350 350 350 350 351 350 349 349 350 352 356 358 359 360 357 359 361 363 363 365 365 364 365 366 366 365 365 367 366 365 364 365 364 365 364 362
351 351 350 350 350 349 349 350 350 350 350 350 349 349 350 350 353 354 356 359 359 359 360 362 363 365 366 365 363 363 365 364 365 366 364 365 365 364 365 366 363 364
350 350 351 350 351 350 350 350 350 349 349 349 350 349 349 349 351 354 356 357 359 359 358 360 362 362 364 366 364 364 364 364 362 363 364 364 364 363 363 364 364 363
350 351 352 352 352 353 352 351 350 350 350 351 351 350 348 349 349 351 354 355 356 357 358 361 362 361 364 365 364 363 363 363 363 361 361 362 363 363 362 362 363 363
352 352 353 354 354 354 353 352 351 351 351 351 352 351 350 349 349 350 351 353 354 356 357 358 357 358 359 361 362 362 363 360 361 361 360 360 361 360 362 363 363 362
354 354 354 355 354 355 356 354 353 353 351 351 351 351 352 352 351 350 349 350 351 354 355 355 355 356 352 342 347 360 361 358 359 361 361 360 361 361 360 361 361 362
356 355 355 355 355 356 356 355 354 353 353 353 352 351 351 353 352 350 348 348 348 350 351 351 352 351 340 333 334 339 355 360 359 361 362 361 359 361 360 358 360 362
354 355 355 355 356 355 355 356 355 354 354 354 352 350 353 351 349 349 350 349 348 348 348 349 350 341 332 330 331 331 339 356 357 357 357 358 359 357 359 359 359 359
356 355 355 355 356 356 357 357 356 355 354 352 350 352 351 351 351 349 350 350 349 349 348 348 349 337 329 328 329 329 329 341 352 354 354 355 356 358 358 359 361 360
357 356 355 356 357 357 357 356 355 354 353 352 352 353 353 352 351 351 350 351 350 350 350 349 349 338 327 325 325 325 327 332 352 351 354 354 356 357 358 359 361 361
355 356 356 356 357 357 357 356 355 355 354 353 352 352 352 352 350 350 350 351 350 349 350 349 348 333 325 323 322 322 324 328 349 351 352 355 357 359 360 359 361 362
353 354 355 357 357 357 356 356 356 357 356 356 355 353 354 353 353 352 351 351 350 350 348 348 349 330 324 322 321 321 323 339 348 352 353 353 356 359 360 362 362 362
348 352 354 355 356 356 356 355 356 357 358 358 355 353 352 352 353 352 354 352 352 351 350 349 350 337 322 320 319 320 324 345 349 351 353 353 354 358 360 361 362 363
344 344 347 351 355 354 355 355 356 356 356 357 355 354 352 353 354 354 354 354 353 352 351 350 350 342 322 318 317 318 328 346 351 351 353 354 355 357 360 361 362 358
343 344 345 345 347 351 354 353 355 354 356 357 355 355 354 355 355 354 354 355 354 353 347 349 351 344 323 318 316 316 327 348 351 352 352 353 353 355 359 360 361 358
343 344 345 345 346 348 352 354 355 355 355 356 356 356 355 355 354 355 354 354 355 354 353 352 352 353 349 317 316 314 317 346 352 352 351 352 353 353 355 358 359 361

ECMWFNIL_sfc_thetae_078.txt.gz
Theta_e
363 363 361 360 358 358 359 359 357 358 360 360 360 362 361 366 366 367 367 367 368 367 368 371 371 372 371 374 376 371 370 370 369 369 366 363 360 356 352 353 354 352
363 363 363 361 360 361 360 359 361 359 361 362 362 362 367 368 366 366 366 366 368 366 368 368 371 372 372 371 373 370 370 370 369 366 366 367 364 360 357 356 354 355
362 362 361 359 356 359 356 359 361 360 358 360 361 362 364 366 368 368 368 366 366 363 366 368 370 370 370 371 375 371 368 372 370 367 369 368 366 362 363 355 355 356
363 362 359 357 356 357 358 357 358 360 359 357 358 359 360 358 363 366 367 368 365 365 366 367 366 367 369 369 371 369 370 373 368 370 370 370 369 367 365 362 358 356
362 361 359 359 357 358 359 357 355 357 357 356 358 360 362 363 364 362 364 366 366 364 365 366 367 366 369 369 370 367 367 367 369 373 370 369 371 368 366 366 365 359
364 363 362 360 359 359 357 357 357 355 357 353 356 358 359 363 362 360 361 360 361 360 359 362 363 363 366 368 369 368 366 363 364 370 369 368 367 366 363 365 366 364
361 362 360 360 358 358 359 358 358 358 355 356 357 357 359 359 361 361 362 360 357 358 356 361 363 362 364 368 368 368 368 367 367 368 368 366 366 366 366 366 368 367
361 361 362 361 358 357 359 358 358 358 358 358 355 357 359 357 360 359 361 361 358 358 360 358 362 365 360 361 365 366 366 364 364 367 368 366 366 366 366 366 367 368
360 360 361 360 357 355 355 355 356 358 359 358 354 353 359 358 356 357 359 362 361 360 363 361 364 363 361 359 360 363 363 358 357 362 364 364 362 363 363 367 366 366
361 360 358 358 356 355 354 354 353 355 358 357 355 352 351 357 357 356 358 363 363 362 364 365 364 363 362 361 362 362 363 363 362 361 360 360 360 360 361 362 362 364
357 358 357 357 356 354 353 353 353 352 355 356 355 352 351 353 358 358 359 362 361 361 362 364 363 365 363 360 359 361 361 359 360 362 362 362 360 361 361 362 362 361
357 357 356 356 356 355 353 353 353 352 352 355 355 353 353 351 355 357 357 360 363 361 361 364 365 364 365 363 357 357 358 359 358 360 359 361 361 359 360 362 360 361
355 356 357 356 357 356 355 354 353 352 352 353 356 354 352 351 351 357 359 359 362 361 358 361 364 363 365 366 361 358 358 360 356 357 358 359 360 358 356 357 359 360
354 356 358 358 358 360 359 356 354 354 354 355 357 356 353 352 351 353 357 358 358 358 359 360 363 364 366 367 366 360 357 358 359 357 355 356 358 358 356 353 354 356
355 355 357 359 359 360 360 358 357 357 358 358 358 357 355 355 354 352 354 356 356 356 356 356 354 358 359 362 363 363 360 356 358 359 357 355 355 355 356 357 355 352
357 358 357 359 359 361 362 361 359 359 358 358 358 358 359 359 358 356 354 354 355 356 356 353 352 352 354 344 350 360 361 354 354 359 360 358 357 358 355 354 354 354
359 359 359 358 360 362 363 363 361 360 359 360 359 359 360 361 359 356 354 353 353 355 355 353 352 350 342 334 336 341 356 359 358 358 361 362 359 359 360 356 354 354
358 361 361 359 360 361 363 364 363 361 360 361 359 357 360 359 357 357 357 355 353 354 354 354 354 344 332 331 333 333 342 356 354 356 356 358 360 358 357 358 356 353
358 358 359 360 361 362 363 363 364 362 360 359 357 359 358 359 360 357 358 357 355 354 353 353 354 341 330 328 330 330 331 344 351 352 352 354 356 359 359 359 359 358
359 357 356 357 360 361 362 362 361 361 360 358 358 359 360 358 358 358 358 359 358 357 356 355 354 343 329 325 326 327 328 335 355 351 351 352 355 356 357 359 361 360
357 358 358 358 358 359 359 359 359 359 360 359 356 356 358 359 357 358 358 358 357 356 356 354 353 337 328 322 322 323 325 332 354 352 352 352 353 355 358 359 361 362
354 355 355 357 359 358 357 357 358 360 359 360 359 355 357 357 359 359 358 357 357 357 355 355 356 333 327 323 320 320 323 344 352 354 353 352 352 354 356 360 361 362
350 353 355 357 357 356 356 356 357 358 359 362 360 359 355 355 358 358 360 358 358 358 357 357 356 341 324 321 319 319 326 349 352 352 353 353 352 354 355 358 361 364
347 349 352 354 356 356 356 356 358 357 357 359 359 358 357 357 358 358 360 361 359 358 357 357 357 347 324 319 318 317 331 350 353 352 353 354 354 356 356 358 360 359
345 347 350 352 354 354 354 357 356 354 357 356 355 358 359 360 359 357 358 360 359 359 354 355 358 349 325 319 317 315 331 353 353 354 353 354 354 355 358 358 359 359
343 346 347 349 351 353 354 357 357 356 353 355 358 358 357 357 358 358 357 356 358 359 358 358 358 360 361 318 317 314 318 351 355 353 353 354 356 355 357 359 359 361

ECMWFNIL_sfc_thetae_081.txt.gz
Theta_e
362 361 360 359 357 355 356 356 355 356 359 359 359 360 361 363 367 366 366 367 366 367 369 373 373 374 372 374 373 370 370 371 368 366 366 360 357 355 351 352 354 352
363 362 362 359 359 358 357 356 357 356 359 363 362 362 365 364 363 367 367 367 368 364 370 368 373 373 373 370 371 369 372 370 370 365 367 363 360 356 353 354 352 354
362 362 360 358 354 357 353 357 359 358 356 358 363 365 364 366 363 365 365 366 365 362 364 369 366 371 370 372 374 370 369 372 368 364 366 368 364 359 361 352 353 353
364 362 359 357 353 354 354 354 356 358 357 357 358 360 363 362 365 363 365 365 365 365 366 365 367 368 368 371 377 369 369 373 367 371 370 371 368 365 363 360 356 353
363 361 359 358 354 356 356 353 352 354 353 354 356 358 360 363 362 363 363 363 365 363 365 365 365 366 368 368 372 368 368 369 369 370 373 368 372 366 364 363 361 355
365 365 362 359 357 356 353 353 353 352 352 350 354 354 357 359 360 360 361 361 360 359 359 361 363 361 363 367 367 366 365 364 364 370 366 366 365 365 361 361 363 363
362 363 360 358 356 356 356 354 355 355 352 352 355 353 355 357 360 361 361 360 359 358 356 360 363 361 362 366 367 367 366 366 365 370 368 366 366 365 364 365 366 366
361 362 361 359 356 354 356 355 355 355 354 354 351 354 356 354 359 360 359 358 357 358 358 357 362 364 360 361 364 365 365 361 362 369 371 366 365 364 363 363 366 367
360 360 360 358 354 351 352 351 354 355 356 354 351 350 355 355 354 356 358 360 359 358 360 359 363 361 361 360 362 363 364 363 359 361 362 362 362 362 362 364 362 366
360 358 356 356 352 350 350 349 348 351 355 354 352 348 349 355 356 355 356 360 358 358 359 360 360 360 360 359 359 361 362 362 361 360 360 361 360 360 359 360 360 362
359 357 355 355 353 351 349 348 347 347 350 353 352 349 347 351 355 356 358 359 357 359 359 360 359 360 360 358 357 358 360 358 358 359 358 358 358 359 358 360 360 359
359 358 356 355 354 351 350 349 347 346 347 350 351 349 348 346 352 353 354 358 360 361 361 361 362 361 361 360 356 355 355 356 356 357 356 358 358 356 357 358 358 359
357 357 357 356 355 354 352 351 349 347 346 346 349 350 348 345 346 353 354 355 359 360 359 361 361 360 363 362 359 355 354 355 352 354 355 356 357 356 354 355 356 355
357 358 358 360 358 359 357 352 351 350 349 348 350 349 347 347 345 348 353 354 355 358 359 360 360 361 363 363 361 355 352 352 352 352 351 352 353 355 354 352 352 354
360 359 359 360 360 362 360 357 355 354 355 353 354 351 349 347 346 345 349 353 354 356 357 355 353 356 358 360 361 360 354 349 351 352 351 351 352 351 353 353 351 350
360 361 361 362 362 363 364 362 359 359 354 354 353 351 354 354 353 349 346 349 352 354 355 351 349 349 355 348 353 360 358 349 348 352 355 353 352 352 349 350 350 350
358 360 360 362 364 364 365 366 363 360 359 362 358 355 358 363 357 351 348 347 349 351 352 349 346 345 343 336 338 344 357 356 352 352 356 355 353 357 355 350 347 348
357 355 356 357 360 360 364 366 364 363 361 360 357 356 361 355 354 355 356 351 349 349 348 349 348 343 332 333 335 335 345 358 352 351 349 350 354 354 353 353 351 347
353 355 357 355 359 364 364 364 364 364 362 358 355 358 357 359 361 356 357 357 354 353 349 349 349 341 329 330 332 332 334 347 349 348 347 347 349 353 354 354 353 351
350 352 354 357 359 361 362 363 362 362 363 360 358 358 360 359 358 359 359 361 359 358 357 353 351 344 328 327 328 329 331 340 353 348 346 345 349 348 350 353 357 355
350 353 355 356 358 357 355 353 357 357 358 362 362 360 357 359 359 359 360 360 359 359 358 355 353 339 327 324 324 325 328 336 355 352 352 352 350 350 355 352 359 358
345 347 351 354 354 353 352 355 357 357 355 358 356 359 358 359 358 361 360 360 360 359 357 357 355 335 327 322 321 322 326 347 356 356 355 355 355 355 354 357 356 359
344 346 348 351 355 353 350 352 353 354 356 358 357 354 355 353 354 356 362 360 359 360 358 358 358 344 325 320 319 320 328 353 356 355 356 356 356 358 357 357 356 359
342 343 344 348 351 351 350 352 355 355 354 358 352 352 353 356 357 357 358 359 360 359 358 359 359 350 324 318 317 318 334 354 357 355 356 356 357 359 359 359 360 358
340 341 342 343 345 348 353 350 350 353 356 359 356 356 356 358 357 357 357 360 358 357 359 358 359 351 326 319 317 315 333 357 356 356 355 355 355 357 359 359 359 359
338 342 342 343 344 346 351 356 354 352 353 357 357 358 355 356 356 358 358 358 357 359 359 359 359 361 357 318 316 314 320 355 358 355 354 355 357 357 358 360 360 361

ECMWFNIL_sfc_thetae_084.txt.gz
Theta_e
364 363 361 361 361 361 361 359 356 358 363 360 359 360 362 365 365 365 365 367 367 368 370 372 371 371 369 371 375 371 378 369 371 369 369 364 363 357 351 352 358 365
364 363 364 361 366 366 366 361 361 362 365 368 366 365 365 365 363 364 366 365 367 365 371 368 371 372 372 371 373 371 371 371 372 363 366 364 366 358 353 357 354 364
362 362 360 359 356 356 352 356 362 361 361 361 364 369 363 362 364 368 369 367 364 361 369 371 371 372 370 372 373 373 369 372 372 365 368 367 364 363 363 351 354 354
363 362 358 357 356 355 354 356 360 362 359 361 360 360 359 358 363 364 369 368 368 367 365 366 367 367 369 369 372 370 368 373 370 370 371 370 368 364 361 363 358 355
360 360 359 358 356 358 357 355 352 354 355 358 357 363 367 371 364 361 365 366 370 365 367 367 366 366 369 370 370 372 369 368 371 373 374 372 370 367 365 364 365 361
363 363 362 360 359 358 353 352 353 354 354 353 357 358 360 364 364 362 362 361 360 359 360 361 363 363 364 368 370 371 366 365 365 369 369 368 365 364 357 364 367 366
359 360 357 357 354 354 354 353 353 355 352 352 358 356 358 358 362 364 364 363 360 362 359 363 366 364 365 367 369 370 370 369 368 370 368 367 369 368 360 365 366 366
360 360 358 357 353 351 352 352 352 353 355 354 352 357 357 354 359 358 361 361 360 360 362 361 367 369 360 362 365 367 366 361 363 369 369 368 369 367 369 364 367 368
360 360 359 356 352 350 349 349 351 351 355 352 348 350 355 355 357 357 362 363 361 363 363 362 366 363 362 363 364 366 364 362 359 364 368 366 364 366 365 366 365 368
358 358 357 354 351 349 349 349 350 350 353 351 348 349 349 355 357 358 361 364 362 364 365 362 366 361 362 362 366 365 365 366 368 366 364 363 363 363 362 363 362 364
352 352 354 355 351 348 348 348 349 350 351 349 348 347 349 351 356 360 361 363 357 360 363 362 363 363 363 360 360 362 364 362 363 366 365 364 363 365 365 365 363 361
352 352 352 351 352 349 346 347 347 347 349 350 350 349 350 350 353 354 358 360 360 359 360 362 363 364 364 362 357 358 360 361 363 363 360 363 362 362 362 362 360 362
355 352 353 348 350 348 346 347 345 344 345 348 350 350 348 346 351 354 356 359 360 360 358 361 362 361 364 364 362 360 359 358 357 358 357 357 358 357 356 357 358 358
353 357 354 349 353 356 355 348 346 346 347 348 351 350 348 346 345 352 355 355 359 358 360 362 363 361 364 365 362 360 359 359 356 355 353 354 354 356 354 353 355 355
356 356 357 355 353 351 352 356 355 356 359 357 356 350 347 348 346 345 351 351 353 357 359 360 358 358 358 361 361 360 359 355 356 354 353 354 354 352 354 355 353 352
358 355 357 359 358 355 354 355 359 362 359 365 364 355 355 355 354 352 349 351 352 355 357 356 356 356 357 349 353 359 358 352 351 354 354 353 356 355 352 354 351 349
357 358 358 355 356 357 358 359 360 354 352 352 355 360 366 368 360 353 347 345 350 350 351 351 353 352 346 337 339 346 358 358 354 356 357 355 354 357 355 351 350 351
355 355 357 359 358 360 358 361 358 358 356 354 353 351 352 355 352 356 358 352 346 347 349 350 352 347 334 333 335 336 346 359 356 352 350 353 353 351 352 352 350 348
351 353 354 355 358 359 360 359 358 356 356 354 352 354 355 353 351 354 356 355 352 354 349 349 350 342 331 330 332 333 335 349 355 353 349 346 348 351 351 352 354 353
347 348 350 354 356 358 358 358 358 357 357 358 357 357 356 356 354 355 352 357 357 354 356 355 351 344 329 326 328 330 332 340 355 351 350 348 348 348 350 352 354 354
345 348 349 351 354 356 356 355 355 357 357 357 358 359 357 358 358 357 357 355 356 356 355 353 352 340 329 323 324 326 329 336 354 352 348 347 348 350 353 351 355 356
344 345 347 350 352 354 354 353 354 356 358 360 360 360 360 359 356 355 353 354 356 357 355 354 355 337 329 321 321 323 327 343 352 353 350 348 348 349 350 353 354 356
341 342 344 346 349 350 349 349 351 353 356 358 357 357 357 356 356 355 355 354 355 357 358 357 356 344 330 319 318 320 326 347 351 353 353 351 350 352 354 354 354 354
340 340 341 343 345 347 349 350 352 353 354 356 353 353 353 354 355 355 356 356 355 356 357 357 357 351 332 319 316 317 330 346 349 352 352 353 353 355 357 358 359 361
335 338 337 338 343 344 348 349 349 349 351 354 354 355 355 356 356 354 355 358 357 356 358 359 358 349 333 320 315 315 327 347 351 352 352 353 353 354 357 358 358 361
338 338 338 336 338 343 348 352 354 351 350 352 354 357 355 355 356 356 354 354 356 358 357 357 356 357 355 326 314 313 318 347 355 354 352 353 354 354 356 357 358 358

ECMWFNIL_sfc_thetae_087.txt.gz
Theta_e
356 357 354 356 355 356 357 357 358 359 357 357 356 356 355 357 361 360 360 361 360 364 364 365 363 362 365 365 368 366 370 362 361 360 359 359 357 356 354 349 348 347
356 357 359 357 357 358 357 357 357 358 359 357 358 357 357 360 360 359 360 361 362 362 365 366 365 363 364 365 366 364 362 365 364 366 358 359 355 354 352 349 348 349
356 356 356 354 356 356 356 356 355 357 358 358 359 358 358 361 359 360 359 361 360 362 364 364 365 364 365 366 365 365 363 363 362 363 359 358 356 355 353 350 347 349
356 356 355 355 354 354 353 354 354 356 357 358 357 362 360 360 358 359 359 367 359 358 363 364 363 364 365 366 364 363 363 361 364 363 360 359 361 357 355 353 354 348
357 356 355 355 354 354 351 350 353 353 356 357 357 357 359 357 358 358 361 362 359 360 361 363 362 362 364 364 363 361 362 362 363 362 362 359 358 360 359 357 353 353
357 357 356 355 354 353 351 349 350 351 351 355 356 357 357 358 358 358 361 360 360 360 359 361 361 362 363 363 363 363 362 362 361 363 362 361 361 361 361 358 356 354
356 357 356 356 354 353 350 349 349 351 350 353 354 354 356 359 356 357 358 359 358 359 358 358 358 358 361 361 361 361 362 361 360 361 360 361 361 360 359 357 355 355
356 357 357 355 354 352 350 349 349 351 349 350 352 353 355 356 357 358 357 358 356 355 355 357 357 357 360 359 361 361 362 365 362 361 359 360 359 357 359 363 356 356
356 356 356 354 354 350 350 349 348 350 350 349 350 351 354 354 356 357 357 357 356 355 355 356 358 357 359 359 360 360 359 360 359 362 360 359 360 358 359 359 359 357
355 362 356 354 352 350 347 347 347 348 351 348 347 349 350 352 355 355 356 356 355 355 354 354 358 357 357 357 359 359 359 359 358 358 361 361 361 360 360 359 357 357
351 351 350 351 350 349 347 346 346 346 348 348 346 345 348 349 353 353 353 356 355 354 356 352 357 357 355 355 358 360 360 359 358 358 360 361 361 359 364 357 357 356
353 353 354 350 347 344 346 345 346 346 346 348 347 344 344 347 350 352 353 355 354 354 356 354 357 356 355 354 354 356 359 359 359 358 358 359 359 358 359 359 358 356
354 352 351 352 349 348 348 346 347 345 346 347 347 345 344 345 346 351 354 354 354 354 354 355 355 357 356 355 354 353 355 357 357 357 356 355 356 357 358 357 356 356
354 355 354 352 350 350 348 349 351 352 343 347 347 345 344 343 346 348 351 354 354 353 353 354 355 355 356 357 355 355 354 354 354 355 355 353 352 352 353 353 354 354
352 352 354 354 354 351 350 350 352 354 352 351 346 346 346 345 344 347 348 352 354 353 353 353 354 355 355 357 356 354 354 353 352 352 352 351 350 349 350 350 349 351
355 353 355 356 354 352 351 353 355 355 353 352 350 354 350 347 344 345 347 348 351 352 352 353 353 355 356 349 353 356 353 353 352 351 349 348 348 348 348 349 350 349
349 351 355 353 353 354 355 356 357 356 353 352 352 353 349 350 350 350 344 347 347 350 351 352 353 355 347 337 339 346 356 352 351 349 348 347 346 347 346 347 348 349
350 350 349 350 351 354 356 356 356 356 354 353 353 353 351 353 351 350 350 350 347 347 349 351 352 349 337 334 335 335 346 355 352 350 349 347 346 345 346 347 347 346
347 347 350 349 350 353 357 356 355 355 354 354 353 353 353 351 350 351 351 352 353 351 347 348 350 342 334 331 332 332 333 346 353 352 349 347 345 345 344 344 346 346
346 348 349 349 351 353 353 354 354 353 355 356 356 354 353 353 354 352 351 350 351 352 351 352 349 346 331 327 327 329 331 337 352 352 351 349 346 344 345 344 344 344
345 346 348 348 350 354 353 352 352 353 354 356 355 356 353 352 353 353 352 353 352 350 350 351 353 342 333 325 322 322 326 332 348 352 351 349 348 346 343 343 344 346
343 344 345 346 349 350 349 350 350 352 352 354 354 355 356 357 355 354 352 352 352 352 351 350 353 335 327 326 319 318 322 334 342 347 348 348 347 345 344 343 344 345
342 342 343 346 346 348 347 348 348 350 351 353 351 351 352 353 353 354 354 353 352 353 351 351 354 331 324 322 322 321 326 334 337 341 344 347 346 344 343 342 344 345
338 338 337 340 343 345 346 348 351 350 350 353 351 350 350 351 352 352 353 354 353 352 352 351 352 334 321 317 323 321 329 336 338 340 340 342 345 347 346 345 347 357
336 339 336 336 336 339 345 347 347 346 348 350 351 352 352 353 354 353 353 354 354 355 359 355 351 343 327 324 320 322 330 341 341 341 342 342 343 345 347 348 348 355
336 336 336 337 335 335 340 344 345 346 347 349 351 353 352 353 354 353 352 352 354 354 354 354 353 352 346 328 326 323 320 339 341 342 342 342 343 344 346 346 348 349

ECMWFNIL_sfc_thetae_090.txt.gz
Theta_e
352 351 350 350 351 353 353 354 354 354 356 355 355 354 355 356 359 357 359 359 359 359 358 356 359 358 361 360 364 361 358 354 355 356 354 355 353 353 353 351 348 344
352 354 354 353 354 356 355 356 356 355 355 355 356 355 356 356 358 358 357 358 359 360 360 360 359 357 358 359 360 358 359 358 357 363 354 354 353 352 352 350 349 347
351 353 353 352 353 354 356 356 357 357 356 355 356 356 356 357 358 357 357 358 357 358 361 361 360 359 360 359 359 359 357 357 357 360 355 354 354 352 351 350 348 347
351 353 353 353 353 354 355 355 355 357 357 356 355 356 356 357 357 357 356 365 357 357 360 360 361 361 360 361 360 359 358 357 360 359 357 355 355 353 352 351 353 350
352 353 353 352 353 354 354 353 353 354 355 356 356 357 356 356 356 356 355 359 356 356 358 360 360 361 360 359 359 358 358 358 358 358 356 354 354 356 356 355 352 350
353 353 353 352 352 352 350 352 352 353 354 355 355 357 357 356 356 355 355 356 357 356 359 359 360 360 361 359 359 358 358 359 358 357 356 356 357 357 358 356 353 351
354 354 353 353 352 351 350 349 351 352 353 354 355 354 356 355 355 355 355 356 357 357 357 358 358 359 359 359 359 357 358 358 356 356 356 357 357 358 359 357 355 352
354 355 354 353 352 351 350 348 348 350 351 352 353 354 354 356 355 355 356 357 357 356 356 357 357 357 359 359 359 356 357 361 359 356 356 356 354 355 356 358 358 353
354 354 354 353 352 351 351 350 348 348 349 349 352 352 353 355 355 355 356 357 356 356 355 355 356 356 357 357 358 358 357 359 361 358 357 356 355 356 356 355 355 354
353 354 354 354 352 352 351 350 349 348 350 348 349 351 351 353 355 355 355 356 355 354 353 353 355 355 356 357 357 357 357 357 357 356 358 357 357 357 357 356 355 353
348 352 353 353 353 352 351 350 349 348 348 348 347 348 350 351 353 355 354 355 355 354 353 352 353 355 355 355 357 357 357 357 357 356 356 357 358 357 363 357 356 355
344 342 344 350 351 347 346 346 346 345 346 349 347 346 347 350 351 352 353 353 354 353 353 353 352 354 354 354 355 357 357 357 357 356 356 357 358 358 358 359 357 355
345 344 345 347 350 347 346 347 347 349 346 344 347 346 344 346 348 350 352 352 353 353 353 353 352 354 354 353 353 355 356 356 356 355 355 355 357 358 359 358 358 357
346 348 350 349 349 349 347 348 350 352 352 351 348 345 344 343 345 348 350 351 352 353 353 353 353 353 353 353 352 352 353 355 355 355 355 354 354 355 357 357 356 356
348 352 352 351 351 349 348 348 349 352 351 350 350 347 346 343 344 346 348 350 350 352 352 352 353 353 354 353 352 351 351 351 353 354 354 353 353 352 352 353 353 354
349 351 350 349 349 348 348 348 350 351 351 350 350 350 349 345 342 343 345 348 349 350 350 351 351 352 355 349 352 353 351 351 351 351 351 351 351 350 350 349 349 349
349 351 352 350 348 349 350 351 352 352 349 349 349 350 348 350 347 342 342 344 348 350 350 350 351 352 346 336 339 345 354 351 350 349 349 348 348 347 347 348 347 347
348 348 348 348 350 352 353 352 354 352 350 348 349 350 350 350 348 347 348 347 345 346 348 350 350 348 337 333 334 335 345 353 350 349 349 347 347 346 345 346 346 346
345 346 347 347 349 350 351 352 351 351 351 350 351 351 351 349 348 349 348 349 349 348 347 346 348 344 335 331 331 331 332 345 352 351 349 348 347 346 345 344 344 345
345 347 346 347 349 351 351 351 350 349 352 353 353 352 350 350 351 348 348 347 349 349 348 351 349 338 332 329 327 327 329 333 348 351 351 350 349 348 346 345 344 343
343 345 345 347 348 347 347 348 348 349 352 354 354 353 351 350 351 350 350 351 350 349 348 348 346 329 327 324 323 324 325 329 337 343 347 349 350 349 348 346 345 344
341 342 343 344 346 347 346 346 347 347 347 350 351 351 352 353 353 352 351 350 350 350 349 346 343 325 326 323 320 318 322 334 336 338 341 344 346 347 347 347 345 344
338 337 338 337 341 344 344 346 346 345 346 349 347 348 350 350 350 352 351 351 351 351 349 346 344 329 324 323 320 317 326 333 334 336 338 340 342 345 346 345 344 344
334 334 334 336 336 339 343 343 346 346 345 349 347 347 349 350 351 351 351 351 350 349 353 349 345 335 319 316 318 320 332 335 336 336 336 337 338 340 343 344 346 353
332 335 334 334 334 336 340 342 342 341 343 346 348 349 350 350 350 349 351 350 353 352 353 352 350 339 315 317 317 317 329 339 339 339 339 338 338 338 340 341 342 350
328 330 332 334 333 334 336 339 342 341 341 343 346 348 347 348 351 350 349 350 352 352 352 351 351 351 344 323 317 315 320 342 342 341 341 341 342 341 341 341 342 343

ECMWFNIL_sfc_thetae_093.txt.gz
Theta_e
348 350 348 348 347 348 349 349 350 350 351 352 351 351 351 352 356 357 357 358 358 357 357 356 356 356 359 356 360 357 356 353 353 353 350 351 350 350 352 350 348 345
348 350 353 349 349 352 350 351 351 351 352 353 353 352 352 354 356 357 356 356 358 358 357 356 355 356 355 356 357 355 354 353 352 359 353 350 350 350 350 349 348 346
350 350 351 348 348 350 352 352 352 352 352 354 355 354 354 356 355 356 356 356 356 357 357 357 356 356 356 356 356 356 356 353 354 356 354 350 350 350 349 350 348 348
349 351 351 351 350 350 353 353 353 353 353 353 354 356 356 357 356 356 355 362 355 356 357 358 358 357 356 357 357 356 354 353 355 355 355 353 353 351 350 348 351 350
349 350 351 351 351 352 353 353 353 354 353 354 355 355 356 355 354 355 354 356 355 355 355 358 358 358 358 357 356 355 355 354 354 354 353 352 351 353 352 351 349 349
350 350 351 351 351 352 352 352 353 354 354 354 354 355 354 354 354 354 354 355 356 355 355 357 358 359 359 357 357 357 357 357 356 353 353 352 353 353 356 353 349 349
350 350 350 351 351 351 352 352 352 354 354 355 355 354 355 353 353 353 354 354 355 355 355 356 356 357 358 358 357 356 355 356 354 352 352 352 353 354 355 354 352 350
351 351 351 351 350 350 350 350 351 351 353 353 353 354 355 354 354 354 354 354 354 354 354 356 356 356 357 357 357 355 355 358 356 353 352 352 350 351 353 355 354 351
352 352 351 351 350 349 350 349 349 349 351 351 352 352 353 354 354 354 353 353 353 354 354 354 355 356 356 357 356 356 355 356 358 355 354 353 351 352 353 352 351 351
351 352 352 351 350 350 349 349 349 347 349 349 349 351 351 352 354 354 353 353 353 353 353 353 353 354 355 356 356 356 355 355 355 356 355 355 354 353 354 353 353 351
351 352 351 351 351 351 350 350 349 348 348 347 347 348 349 350 352 353 352 352 353 353 353 352 353 353 353 354 355 356 356 356 355 354 355 355 355 355 360 354 353 353
347 348 350 351 351 351 351 350 350 348 347 348 347 346 346 349 349 352 353 352 353 353 353 353 352 352 353 353 354 355 355 355 355 354 354 355 355 356 355 355 355 354
345 347 348 349 350 348 346 347 346 345 345 345 347 346 345 346 348 349 352 352 353 353 353 353 352 352 352 352 353 353 353 354 354 354 354 353 354 355 356 356 356 356
345 346 346 348 348 346 344 344 346 348 348 348 347 345 345 344 345 347 349 352 352 352 353 353 352 351 351 352 352 352 353 353 353 353 353 353 353 353 355 356 356 357
345 346 346 348 348 347 346 345 346 347 347 347 348 347 347 343 344 345 347 348 350 351 352 352 352 352 352 352 351 351 351 351 352 353 353 352 352 352 352 353 354 355
345 347 348 347 346 345 346 346 346 346 347 346 346 347 346 347 342 342 344 346 347 349 350 351 351 352 354 347 350 353 350 351 351 352 352 352 352 351 351 350 351 352
346 346 347 346 345 345 345 346 348 350 348 345 345 346 345 347 348 341 340 342 345 347 347 349 351 352 346 337 337 342 353 350 349 348 349 350 350 349 349 350 349 349
346 346 346 346 347 346 346 346 349 350 348 346 346 347 346 347 345 344 341 340 342 344 346 348 349 347 337 334 334 334 343 352 350 349 349 348 348 348 348 348 348 348
345 344 345 346 347 350 351 349 348 348 347 347 347 347 348 344 345 345 345 345 343 341 343 346 348 343 335 332 331 331 332 343 351 349 348 348 347 347 346 346 345 346
344 346 346 346 347 348 348 349 349 347 348 348 349 349 345 347 347 345 345 343 345 345 344 344 345 345 335 331 328 328 329 334 347 349 349 348 347 347 347 346 345 344
342 342 342 343 345 345 345 345 346 346 349 352 351 349 346 346 346 345 347 349 348 348 347 348 346 325 323 325 325 324 326 331 341 345 347 347 348 348 347 347 346 346
335 337 338 341 344 344 344 344 343 344 344 349 349 348 348 349 349 350 347 346 347 347 347 346 344 323 322 322 320 321 324 334 338 339 341 343 344 346 347 348 348 347
335 335 335 336 339 340 340 341 341 340 342 346 344 345 347 348 348 347 346 346 347 348 347 346 345 328 320 318 319 319 326 333 334 336 337 339 340 342 344 345 346 346
331 333 334 336 336 337 338 338 339 339 340 344 345 346 347 348 348 348 347 348 347 347 351 348 346 336 321 320 319 320 330 335 334 334 334 336 336 337 339 340 343 353
326 328 327 328 330 332 336 339 339 337 338 339 341 344 344 347 349 347 348 347 350 352 353 351 348 342 324 320 319 318 327 337 338 337 337 338 339 339 340 340 339 345
325 327 327 326 326 328 331 335 339 339 340 340 340 342 342 344 348 347 345 346 347 348 349 349 348 347 342 322 317 317 317 333 340 338 340 341 341 342 342 342 343 342

ECMWFNIL_sfc_thetae_096.txt.gz
Theta_e
349 350 349 349 349 349 349 350 351 352 352 354 353 354 354 355 356 357 358 360 361 361 361 361 362 362 361 361 362 359 361 359 360 359 358 358 357 356 355 354 352 354
349 351 353 351 351 352 351 351 352 352 352 354 355 355 355 356 356 358 358 359 361 362 361 361 360 361 361 361 360 360 360 360 358 360 358 358 357 356 355 355 354 352
349 350 351 349 349 350 350 352 353 353 353 353 355 356 355 356 356 359 359 359 360 360 361 361 360 360 360 360 360 361 361 359 359 360 361 359 357 356 357 355 354 353
349 350 351 351 350 350 352 352 353 354 354 355 355 356 356 357 357 357 358 362 359 360 360 360 361 360 360 360 360 362 361 360 361 361 362 361 360 358 357 356 357 356
349 350 351 352 351 352 353 352 352 353 354 354 356 358 358 358 358 357 357 359 359 358 359 360 361 360 361 360 361 361 361 360 360 362 362 362 360 360 359 358 357 356
350 352 352 352 352 352 352 353 353 354 354 354 355 357 358 357 357 357 357 357 358 358 358 359 360 360 361 360 361 361 362 361 360 360 360 361 361 360 360 359 358 356
349 350 351 353 352 353 353 353 354 356 355 356 357 356 357 356 356 357 358 357 358 359 357 358 359 360 361 361 361 361 361 362 361 360 359 359 360 360 360 361 361 359
349 349 351 352 352 352 353 353 354 355 356 357 356 357 357 356 356 356 357 357 357 358 358 358 359 360 359 360 360 360 360 359 360 359 358 358 358 358 359 359 361 360
350 350 350 351 351 351 352 352 353 354 356 356 356 356 357 357 356 356 357 357 357 358 358 358 359 359 360 360 360 360 359 359 360 360 359 358 357 358 358 359 358 359
350 351 350 351 350 351 351 352 352 353 355 355 355 356 355 357 358 357 357 356 356 357 357 357 358 358 359 360 360 360 360 360 360 360 360 359 358 358 358 358 358 358
351 352 351 351 351 351 351 351 351 351 352 353 353 353 355 355 357 358 357 356 355 355 356 357 357 357 358 358 359 360 360 359 360 360 360 360 360 359 360 360 358 358
352 352 352 352 352 352 351 351 351 351 350 352 352 352 353 353 354 355 356 356 357 357 357 357 357 357 358 358 358 359 359 359 360 359 359 360 360 359 360 361 360 360
351 352 353 353 353 353 352 352 351 351 350 349 351 350 350 350 351 353 356 356 356 356 356 357 357 356 357 358 358 358 358 358 358 358 358 358 359 359 359 360 360 360
351 352 353 353 354 354 353 352 352 352 351 350 351 350 349 349 349 350 353 355 355 356 357 358 357 356 357 357 357 357 357 357 357 357 357 357 357 358 358 358 359 360
344 343 344 348 352 352 351 350 350 350 350 350 350 349 349 349 349 349 350 353 354 355 356 357 355 355 355 355 356 356 356 356 356 356 356 356 356 356 357 358 358 359
344 344 343 343 344 345 347 349 348 349 350 350 350 349 349 349 348 348 349 350 351 353 354 354 355 355 355 348 350 356 356 355 356 357 357 357 357 356 355 356 356 357
343 343 344 342 342 343 344 345 348 349 350 350 350 350 350 352 350 345 346 347 349 350 352 352 354 354 347 337 337 343 356 356 355 356 356 356 356 356 356 355 356 356
345 345 344 344 343 343 343 345 348 349 350 350 350 350 351 351 350 347 346 345 345 348 349 351 352 349 338 335 335 334 344 357 355 354 353 353 354 354 355 355 355 354
345 345 345 345 345 345 345 347 348 348 348 344 346 350 351 350 350 349 347 346 344 345 346 348 350 344 334 333 332 332 333 347 355 354 353 353 353 353 353 354 354 354
345 346 345 345 346 346 346 346 345 343 345 346 348 346 345 351 352 350 349 350 350 347 347 347 349 341 334 331 328 328 329 336 351 353 354 354 354 353 352 353 353 353
340 342 343 344 344 345 344 343 343 343 342 342 343 344 346 350 352 352 352 352 351 350 352 348 341 323 324 325 325 325 326 332 346 349 352 354 354 354 355 353 354 353
336 337 338 340 340 341 341 341 341 343 344 345 344 343 345 349 350 349 348 348 349 352 351 349 342 321 321 321 320 321 324 337 342 344 346 347 349 350 351 354 353 354
331 332 334 335 337 335 335 338 339 341 343 346 344 345 347 348 347 347 348 347 348 350 352 349 346 326 319 318 319 321 333 340 341 342 343 343 344 345 347 347 349 350
328 328 329 330 330 335 336 335 336 339 341 344 345 346 346 347 348 348 348 349 351 352 353 349 348 335 320 319 318 320 333 343 344 343 342 342 343 344 345 346 346 347
328 328 328 328 328 329 331 335 337 336 338 340 341 340 340 345 347 346 347 347 350 352 351 349 348 342 322 318 317 316 331 343 345 346 346 346 346 347 348 348 349 349
326 328 327 327 326 328 331 332 333 333 337 340 338 337 338 340 346 343 343 346 349 347 343 338 338 335 329 316 315 316 318 338 343 346 346 347 347 348 348 348 349 351

ECMWFNIL_sfc_thetae_099.txt.gz
Theta_e
361 361 360 359 360 360 360 360 359 360 362 361 359 361 362 364 365 364 364 365 365 365 366 368 369 368 366 368 370 369 368 367 368 367 367 365 363 360 357 360 361 360
361 362 363 361 362 363 362 361 362 361 363 365 363 364 366 366 364 365 364 364 365 365 367 367 368 369 369 368 370 368 367 367 367 365 367 365 363 361 360 361 360 362
360 361 360 360 358 360 358 360 362 362 361 361 364 366 363 365 364 367 367 365 364 363 366 368 368 369 368 370 371 368 365 367 366 365 367 366 364 362 363 360 360 360
361 361 359 358 358 359 360 361 361 362 362 362 361 362 363 361 364 365 367 367 366 365 366 367 367 367 368 369 370 367 366 368 366 369 367 367 366 364 364 364 362 361
359 360 360 360 360 362 362 360 358 360 360 361 362 365 365 366 366 364 366 366 368 365 366 367 368 367 370 370 370 367 365 364 367 369 367 366 368 366 364 364 364 362
360 362 362 360 362 362 359 359 360 360 361 360 362 363 364 365 365 364 364 363 363 362 362 364 365 366 367 368 369 367 364 361 365 368 366 366 365 366 363 364 365 363
357 359 358 359 359 360 360 360 361 362 361 361 364 363 365 363 364 365 366 365 363 364 362 365 366 365 367 369 368 367 366 366 367 368 366 365 366 366 364 364 365 364
356 357 359 359 358 359 359 359 361 362 364 365 362 364 365 363 365 364 365 365 364 365 366 365 367 369 365 366 366 365 364 363 364 367 367 365 367 366 366 364 363 364
356 357 358 358 356 356 356 355 358 361 364 362 359 360 365 364 364 363 366 367 365 366 368 366 368 366 366 366 365 365 364 363 363 366 366 364 364 365 365 365 363 364
356 356 354 355 354 355 355 355 355 358 362 360 359 358 361 365 365 364 366 368 366 367 368 367 367 366 365 366 366 365 365 364 365 366 366 365 364 364 363 364 364 364
354 354 354 354 354 354 354 355 356 356 359 358 357 357 360 362 366 367 367 367 363 365 366 367 367 367 367 365 364 364 365 363 364 366 366 366 365 366 364 365 365 364
355 355 354 355 354 354 354 354 355 355 356 358 357 358 361 360 363 364 365 367 367 366 366 367 368 368 368 367 364 364 365 364 365 366 365 366 366 365 366 366 364 365
357 358 358 357 357 355 355 356 355 356 356 356 358 358 358 358 359 363 365 365 367 366 364 366 367 367 369 369 367 366 365 366 363 364 365 366 366 365 364 365 365 364
359 361 362 361 361 361 359 358 357 357 358 358 359 358 357 357 357 358 361 362 363 364 365 366 367 366 368 369 368 366 365 365 365 364 363 363 363 365 364 363 364 364
361 363 364 363 363 363 361 360 360 360 361 361 361 359 356 357 358 357 358 359 360 362 363 364 362 362 363 365 366 366 366 364 365 364 364 363 364 362 363 365 365 363
356 359 361 362 362 361 362 361 360 360 360 360 360 359 360 361 361 360 358 358 358 361 362 360 360 360 363 354 357 364 366 363 363 366 366 365 365 364 362 363 362 361
346 348 353 355 357 360 360 359 358 358 359 360 360 361 361 362 361 359 358 357 356 357 358 357 358 358 352 340 340 345 362 365 364 366 367 366 364 366 365 362 362 363
347 346 347 348 349 351 354 356 357 357 358 358 357 357 359 358 358 358 358 356 355 355 355 355 356 356 340 337 336 335 346 362 363 363 362 364 363 362 363 362 361 361
348 346 345 346 348 349 350 353 355 355 355 356 355 357 357 359 360 358 359 358 356 356 354 355 355 350 338 336 334 333 334 349 359 361 360 359 361 362 362 362 364 363
348 347 345 345 346 348 348 350 350 350 352 356 356 356 356 357 356 358 358 360 359 358 358 356 356 338 331 334 331 330 332 339 358 359 360 360 361 361 360 361 362 363
347 346 346 346 346 346 347 349 350 349 349 352 355 356 356 358 358 358 359 359 358 358 357 354 345 323 325 325 328 328 329 337 356 356 358 360 362 362 363 362 362 362
337 342 345 347 346 346 346 346 346 348 347 349 350 353 355 356 356 358 358 355 356 357 357 352 344 322 322 322 323 325 329 348 356 358 358 358 359 360 359 361 360 360
332 333 335 338 341 344 344 344 344 344 346 348 349 352 353 353 354 353 352 350 351 352 352 351 348 327 319 319 321 324 340 355 355 355 356 355 354 355 355 356 356 357
332 332 332 333 335 337 339 342 344 344 346 350 349 351 354 355 354 350 349 349 349 351 348 348 339 326 317 316 318 322 344 358 359 357 357 358 357 359 359 359 357 352
332 331 331 331 332 333 335 337 340 340 340 341 342 345 347 351 351 349 348 351 351 348 346 341 335 331 317 314 315 316 340 357 357 357 356 356 355 356 358 357 358 356
329 330 331 330 329 331 333 332 335 338 339 338 338 340 341 344 347 345 344 344 343 341 338 338 338 337 328 314 312 315 320 353 356 355 353 353 354 355 355 355 356 357

ECMWFNIL_sfc_thetae_102.txt.gz
Theta_e
366 367 365 363 363 363 364 363 363 363 364 361 360 363 361 365 364 362 362 365 364 364 365 368 369 369 365 367 369 368 367 366 367 369 366 366 366 361 358 357 357 355
364 366 366 365 364 366 366 365 365 365 366 367 365 364 367 367 364 363 363 362 365 364 367 367 368 369 370 368 369 367 368 368 365 365 368 368 364 362 359 359 357 359
362 363 363 362 361 362 360 363 366 364 363 364 366 367 365 366 367 366 367 366 366 365 367 369 370 369 368 372 375 368 367 367 366 365 368 367 366 364 363 360 359 358
363 363 361 359 360 361 361 363 363 363 365 364 365 364 364 362 365 366 367 366 367 366 368 367 367 367 369 370 374 368 368 370 366 369 369 369 368 365 365 364 361 360
361 362 361 360 360 362 364 362 360 360 361 363 363 366 366 366 365 365 367 365 367 367 368 368 369 368 371 371 372 368 367 366 368 370 368 367 369 367 363 363 365 360
362 363 363 360 360 361 360 360 361 360 360 360 362 364 364 364 364 364 365 364 363 362 362 364 366 365 367 369 370 368 366 362 363 369 367 369 366 366 361 364 365 363
357 359 359 360 359 359 359 359 361 362 360 361 364 363 365 364 364 365 366 363 363 364 362 365 367 366 366 369 369 370 368 366 368 371 370 367 367 367 366 366 366 365
356 356 359 358 357 357 357 356 358 360 362 363 361 363 364 363 365 364 364 364 363 364 365 365 368 368 366 366 368 367 367 364 364 368 371 368 369 371 369 366 365 364
356 355 356 357 355 354 353 354 355 357 361 361 359 359 363 363 362 363 365 368 365 365 366 366 367 367 365 365 367 368 366 364 361 365 366 365 364 366 365 366 364 363
355 355 352 354 353 353 352 353 352 354 357 357 358 357 357 362 363 364 367 369 367 368 368 367 368 364 364 365 365 366 366 366 365 366 366 366 364 364 363 365 363 364
352 352 351 352 352 351 351 352 352 351 355 355 355 354 356 360 363 365 367 369 364 367 368 368 367 367 366 364 365 365 364 362 365 365 366 367 366 366 365 365 365 364
354 353 351 352 352 351 351 352 352 350 351 355 354 353 356 357 361 362 363 368 368 367 368 368 367 369 369 368 365 364 363 362 363 363 362 365 366 365 366 366 364 365
359 358 355 353 353 353 352 352 352 352 352 351 353 353 353 354 357 362 364 364 367 366 365 366 367 366 368 369 366 366 366 366 364 364 364 364 365 363 364 364 362 362
360 361 362 359 358 359 356 354 353 353 354 355 355 355 351 352 354 358 361 363 364 364 365 366 367 367 367 368 367 366 365 365 366 366 365 365 364 363 363 363 364 364
361 363 364 365 362 362 361 358 357 357 356 357 358 356 353 352 353 354 358 359 361 361 363 362 360 361 363 365 364 365 365 364 365 365 365 365 365 363 362 362 362 362
362 362 362 365 365 365 367 365 361 360 358 359 360 359 358 357 356 355 356 357 357 358 359 358 357 358 367 365 364 365 365 362 362 365 365 364 363 362 360 359 359 359
363 362 363 365 367 369 368 367 365 363 360 361 361 362 362 361 359 357 356 356 356 356 356 354 354 356 358 344 346 352 361 363 364 365 366 364 362 363 362 359 358 358
359 359 359 360 361 363 366 369 367 364 363 362 361 360 364 362 360 359 360 357 356 356 355 355 355 359 340 340 342 342 355 362 360 362 361 361 361 360 359 359 358 356
353 354 357 357 358 358 359 360 361 362 362 360 359 361 362 362 362 359 360 359 358 358 355 356 355 334 338 339 339 338 339 355 359 360 360 360 361 362 362 362 363 361
353 353 353 353 354 353 353 354 354 356 359 359 360 361 362 361 360 362 359 361 359 357 359 358 356 332 328 332 335 334 335 345 360 359 359 360 361 362 361 362 364 363
353 353 351 351 352 352 351 351 352 354 356 357 359 361 361 362 362 359 361 362 358 357 357 354 345 324 327 326 327 330 333 343 359 358 358 360 361 362 364 363 365 365
345 349 351 349 350 351 350 350 351 352 353 355 355 358 360 360 360 359 358 360 360 359 355 356 346 321 322 324 325 328 333 352 358 360 360 360 361 363 366 370 369 368
340 343 343 345 348 348 348 349 350 348 350 351 350 352 352 353 355 355 358 359 360 361 359 354 345 325 318 318 320 325 336 359 361 361 362 361 361 366 366 365 365 366
338 339 340 340 340 339 343 348 350 349 346 349 348 351 354 355 354 354 354 356 356 357 347 344 342 328 315 315 317 319 336 362 363 361 363 362 363 365 365 366 365 360
335 337 337 336 336 336 337 338 342 344 347 350 350 351 352 353 352 347 342 342 341 343 345 344 343 334 315 314 314 316 336 363 363 364 363 362 361 362 363 363 363 361
333 334 336 336 336 336 338 340 341 343 343 345 346 346 345 344 344 343 341 342 342 341 342 340 337 335 324 312 311 315 318 350 362 360 360 359 359 358 359 359 360 355

ECMWFNIL_sfc_thetae_105.txt.gz
Theta_e
367 365 364 363 363 362 361 362 362 359 360 356 355 358 359 362 363 362 361 363 362 364 365 369 369 368 365 367 368 366 368 365 365 366 363 363 364 359 356 355 356 354
367 366 364 363 363 366 366 364 363 361 362 365 362 364 363 365 362 363 363 363 364 363 366 366 368 370 369 367 368 365 366 367 363 363 365 365 361 360 357 357 355 359
365 365 365 362 360 365 361 364 365 364 362 360 362 365 363 365 365 365 365 364 364 362 364 367 369 369 368 370 375 368 366 367 365 362 367 368 365 364 363 359 358 356
363 364 360 359 360 357 359 362 363 365 363 362 363 361 361 359 363 364 366 364 365 365 365 366 367 367 369 369 375 367 367 370 367 367 369 369 366 364 364 362 359 360
360 360 361 361 360 362 359 358 359 359 361 362 360 363 361 366 364 365 366 363 368 366 367 369 368 367 369 370 371 367 365 366 367 371 369 366 369 365 361 362 363 360
361 362 362 359 361 361 360 359 359 358 358 358 359 360 362 363 364 363 364 364 360 361 362 363 367 364 367 369 370 367 362 359 365 370 365 365 364 365 360 360 363 360
357 358 357 358 357 359 359 359 360 360 357 358 363 359 360 361 361 363 365 363 363 361 360 363 366 364 365 366 368 367 366 367 365 366 367 365 367 365 363 363 366 365
356 356 357 358 355 356 355 356 359 359 360 360 358 359 362 361 363 362 363 363 362 362 363 363 366 369 362 360 365 368 366 361 365 367 370 366 367 369 368 364 367 365
355 355 355 354 353 353 352 351 353 357 360 359 357 359 361 362 362 361 362 365 363 362 365 364 368 366 363 364 365 367 366 362 359 363 363 362 360 363 364 365 364 364
354 353 350 351 350 350 351 352 351 352 355 357 356 356 357 359 362 361 363 367 363 364 366 365 366 365 364 363 364 367 366 364 364 363 365 364 363 363 363 363 362 364
353 352 351 351 349 348 348 350 350 350 353 354 355 354 355 359 360 362 364 369 363 364 366 366 364 364 364 362 363 364 364 364 364 365 363 364 363 364 364 364 364 362
355 353 350 349 349 350 348 348 349 349 350 353 354 354 355 355 359 359 362 366 365 364 365 366 366 367 366 364 362 362 362 362 361 363 362 364 362 361 362 361 359 360
361 359 355 351 350 350 349 350 349 349 349 349 353 353 353 351 355 359 361 364 365 364 364 365 366 366 368 366 364 363 362 361 359 360 360 362 362 361 361 362 360 359
362 361 360 357 354 354 353 351 350 351 351 352 352 353 351 351 351 355 359 361 364 362 363 365 368 363 364 366 363 363 362 363 363 362 360 360 360 361 360 360 360 360
361 362 363 362 359 358 354 352 353 354 354 355 355 354 351 352 351 351 356 358 361 362 362 361 361 363 362 364 366 364 363 360 362 361 360 361 362 361 360 360 360 360
361 364 365 367 363 361 361 357 355 356 355 355 356 355 358 358 356 353 352 355 357 360 361 358 358 358 363 364 363 359 356 356 359 362 362 361 362 361 358 360 358 357
363 363 364 365 366 366 365 365 364 361 359 361 358 358 360 362 356 353 351 352 354 356 358 355 355 357 354 346 349 355 364 364 360 363 365 364 364 366 363 359 358 356
355 356 364 363 365 369 371 371 370 366 363 362 359 357 362 360 357 355 354 353 352 354 355 354 354 352 337 342 346 347 361 362 360 361 360 362 359 358 359 358 356 354
356 353 350 355 363 365 367 368 368 367 367 364 360 362 360 361 362 358 355 354 353 354 353 353 353 333 334 341 342 343 346 361 355 357 357 357 359 360 360 358 358 356
352 353 352 353 358 359 360 357 360 359 360 361 362 363 362 362 361 361 358 361 356 355 359 356 347 331 329 333 337 337 340 351 356 354 355 357 358 359 358 359 361 361
348 348 348 352 354 354 355 356 357 357 358 359 358 358 358 360 361 360 356 357 355 353 354 350 339 321 325 327 328 332 335 349 358 354 353 355 356 357 361 361 361 364
346 348 349 349 354 354 354 354 355 355 355 359 358 357 357 358 358 358 355 354 352 348 348 349 339 320 321 323 323 328 332 353 357 358 355 352 353 356 360 362 363 364
345 346 346 347 350 351 350 351 353 354 356 356 356 357 356 354 353 346 347 348 350 349 348 346 343 325 317 317 319 323 337 356 358 356 356 354 353 357 358 364 363 363
342 342 343 345 345 343 344 348 351 353 353 352 352 354 355 354 350 347 346 346 349 349 348 345 343 327 314 314 316 317 334 359 361 358 357 359 358 359 363 361 358 365
340 341 340 340 341 340 343 344 345 349 352 351 351 351 352 354 351 346 344 344 345 350 348 349 344 331 314 312 312 314 337 362 366 362 360 355 348 350 349 354 353 349
339 340 341 341 340 341 341 343 345 344 344 346 348 351 353 351 349 346 343 345 347 345 342 340 337 330 320 311 310 313 316 349 365 363 358 350 348 345 342 345 353 351

ECMWFNIL_sfc_thetae_108.txt.gz
Theta_e
365 362 362 360 360 361 362 362 363 359 362 361 357 359 369 366 370 367 362 365 364 365 368 371 372 371 363 371 367 371 375 370 373 366 370 367 368 357 354 355 357 364
362 365 366 362 359 360 363 362 363 367 365 366 365 374 365 366 358 364 365 364 364 362 370 366 370 371 371 368 370 370 369 370 369 362 367 365 365 359 356 360 356 365
363 364 362 359 357 360 360 363 367 364 364 360 365 371 364 364 361 368 371 367 363 359 366 369 369 371 369 370 374 370 365 371 369 361 368 367 365 365 366 355 359 358
362 360 359 358 360 357 358 361 364 360 361 362 361 361 361 363 363 361 366 365 366 367 364 364 366 365 368 369 374 372 369 373 370 373 371 371 368 365 365 363 359 360
358 359 357 357 359 361 360 359 358 360 359 366 362 365 366 364 365 360 363 365 370 364 367 366 366 366 370 370 372 372 367 369 369 372 369 369 370 368 361 362 364 364
361 363 362 359 363 360 356 356 358 357 358 356 361 359 359 361 361 362 362 359 359 359 360 363 363 362 363 368 370 369 364 361 366 372 369 367 365 363 358 362 362 363
356 358 356 356 357 360 358 358 359 360 357 358 361 359 360 360 361 362 362 361 358 361 357 363 367 366 365 369 370 370 369 368 370 369 369 367 370 365 361 364 370 368
355 355 356 356 354 354 356 356 356 359 360 359 356 358 359 357 360 357 362 361 360 360 365 359 367 368 361 363 367 368 364 360 364 369 367 366 368 367 368 360 367 369
353 354 355 354 352 351 351 351 355 356 358 356 355 356 358 359 359 357 364 363 360 363 365 365 367 364 365 366 365 367 365 360 360 364 365 363 361 364 365 368 364 367
352 352 352 352 350 350 350 351 350 352 356 353 355 353 353 358 360 359 360 365 363 366 366 364 364 364 365 362 363 364 363 364 366 366 364 363 362 361 359 362 361 365
349 349 349 350 349 348 348 349 349 349 352 353 353 353 353 355 360 361 363 368 358 361 364 365 364 365 364 360 361 363 364 364 363 365 363 365 364 364 363 365 365 361
352 349 348 347 348 348 348 347 347 348 348 350 352 353 354 355 356 357 362 365 366 363 365 367 367 366 365 364 358 358 362 362 364 364 362 363 362 361 361 363 361 364
358 361 364 351 348 348 348 348 347 347 347 347 350 352 352 351 353 357 361 364 367 362 360 365 366 363 370 368 364 361 361 362 357 360 360 360 360 358 357 358 358 358
361 364 365 365 361 365 358 349 348 348 351 351 352 352 350 350 348 354 356 360 362 362 364 364 367 365 367 369 369 364 362 359 360 357 357 358 357 358 356 354 357 358
365 362 358 360 362 366 364 359 356 356 359 359 364 352 349 350 350 349 353 355 358 362 362 360 358 359 360 362 365 364 364 358 359 358 356 358 357 356 361 361 359 356
363 361 359 361 359 358 358 359 357 356 355 359 358 359 362 363 363 355 349 351 356 358 360 357 355 357 365 365 365 366 364 359 358 366 367 361 363 365 359 359 357 356
361 358 357 356 355 354 354 353 350 350 353 356 360 360 365 369 361 354 349 349 350 355 356 356 354 356 354 343 345 354 363 362 361 366 365 363 360 367 366 360 358 358
357 356 355 353 352 351 350 351 348 349 349 348 348 353 361 356 356 358 361 353 349 349 352 353 352 338 329 333 340 343 358 362 362 361 359 359 360 358 361 360 357 353
356 356 356 354 351 350 351 350 347 347 347 347 351 353 355 359 357 354 354 356 351 351 351 352 348 329 329 333 336 338 346 367 358 357 354 355 354 359 362 364 363 360
354 354 355 352 351 352 353 351 348 347 348 353 356 360 358 356 358 357 357 356 353 353 351 348 346 331 327 329 330 333 336 349 358 354 353 352 358 356 355 359 354 353
350 351 352 353 354 354 354 355 350 349 355 357 355 354 357 358 359 356 353 353 352 353 352 346 338 322 324 326 326 328 333 350 358 353 353 358 359 355 353 351 351 355
346 348 350 350 352 353 353 353 353 355 354 359 358 358 358 357 355 351 351 350 351 350 352 344 333 319 321 322 322 327 334 352 357 360 360 355 353 350 354 358 357 354
345 346 347 346 347 348 348 350 350 352 352 355 355 355 354 353 351 349 349 351 352 353 351 344 336 320 316 316 318 320 338 356 359 360 362 355 346 351 357 357 357 357
343 342 343 345 344 342 343 346 349 349 351 354 352 353 352 351 349 347 348 350 352 351 348 341 333 321 313 313 314 316 333 354 363 361 352 352 354 352 353 351 353 360
342 342 341 342 341 341 343 343 344 346 349 350 349 352 352 352 350 345 345 347 349 347 346 338 332 326 314 312 312 314 333 357 362 353 351 350 350 351 352 351 342 342
343 342 341 341 341 341 342 343 345 346 347 347 347 348 349 350 348 345 343 344 344 342 340 337 332 326 319 311 310 314 322 357 355 352 348 348 350 348 349 351 346 336

ECMWFNIL_sfc_thetae_111.txt.gz
Theta_e
357 357 356 356 358 359 358 358 360 358 357 357 356 357 356 356 360 354 359 359 359 361 364 364 364 363 368 364 367 365 367 363 366 364 361 362 359 357 355 354 353 352
357 359 360 358 358 359 359 359 358 358 357 360 357 361 362 363 361 360 358 358 360 359 362 363 365 363 363 362 361 361 363 364 363 366 363 362 360 359 355 355 353 354
359 360 358 357 355 356 358 359 361 361 361 360 362 365 364 362 360 356 360 358 357 357 361 361 362 364 364 366 366 363 361 361 360 361 362 361 363 361 359 357 354 355
359 361 359 357 355 354 358 357 359 360 360 359 360 363 363 363 359 358 361 367 356 356 360 362 362 362 363 364 366 365 363 361 363 363 366 366 364 364 363 359 358 359
358 360 360 357 356 356 356 356 355 355 356 358 359 358 361 357 359 358 359 358 360 361 360 359 361 362 362 363 365 363 362 363 363 363 358 357 361 364 362 359 358 358
359 359 358 356 357 356 355 356 355 355 356 360 358 361 359 359 357 358 358 358 359 360 360 359 360 361 363 362 365 363 361 361 360 362 362 359 361 361 360 359 359 355
357 357 354 354 356 356 355 355 355 357 357 355 357 356 358 357 358 356 359 358 356 357 357 358 359 358 360 361 361 361 362 359 362 361 361 361 363 362 362 360 362 360
356 356 354 353 355 355 355 353 354 356 355 355 355 356 357 358 358 358 359 358 357 356 355 358 359 360 360 362 361 361 362 361 363 360 360 360 358 357 360 360 360 359
355 355 354 353 355 354 354 354 355 355 357 355 354 355 356 356 358 357 357 358 357 357 359 357 361 360 359 358 359 360 359 358 359 360 360 359 359 358 359 361 361 359
352 353 353 352 350 353 352 353 354 354 357 354 353 353 355 355 356 356 359 358 358 357 359 358 362 361 361 360 359 359 360 359 359 361 361 361 359 358 358 358 359 357
350 350 351 350 349 348 351 352 352 353 355 354 353 352 353 354 356 358 356 358 358 356 359 358 358 360 361 360 358 359 359 359 359 359 359 360 360 358 365 359 358 356
348 347 349 349 348 347 346 347 348 350 353 353 353 352 350 352 354 356 356 355 359 358 359 360 358 360 360 360 359 358 359 359 360 360 358 358 359 360 359 359 358 358
354 357 351 347 348 347 346 345 345 346 348 351 351 352 350 350 352 354 356 357 359 360 361 361 361 361 360 360 359 357 358 359 359 359 359 358 358 358 357 357 357 357
360 357 356 358 361 362 354 350 352 349 345 344 348 349 350 350 351 352 357 357 359 360 359 360 360 360 361 362 361 359 358 357 356 355 355 356 355 356 356 354 355 357
353 354 355 358 359 356 353 352 351 350 351 351 352 351 348 349 356 351 353 356 359 360 360 360 361 362 362 362 362 362 362 359 357 356 355 353 354 354 355 354 357 359
357 356 356 355 354 353 352 352 350 351 349 349 349 349 348 350 350 351 350 355 355 358 358 358 358 360 362 362 361 362 360 359 358 355 355 355 356 356 355 353 355 352
354 352 353 351 349 350 350 350 349 351 350 349 349 349 348 349 348 350 352 352 350 354 355 357 356 357 340 332 338 344 360 360 358 357 357 357 357 354 355 351 346 349
353 352 350 349 348 347 347 348 347 347 347 349 351 353 351 353 350 349 347 346 348 351 352 355 347 335 329 331 335 338 350 354 355 357 357 358 356 354 351 354 354 352
352 352 350 347 346 347 348 348 346 346 345 347 351 353 355 355 351 350 347 350 349 350 350 349 341 330 328 331 332 336 342 355 351 356 353 351 355 351 351 352 351 353
350 350 350 348 348 349 348 347 345 344 346 348 351 353 351 353 355 353 352 349 351 349 346 343 337 328 326 327 329 330 335 347 353 349 344 348 355 353 354 349 351 351
347 348 348 349 349 349 349 349 346 344 347 351 351 349 350 348 348 350 352 352 351 349 344 339 332 322 322 324 324 327 329 350 353 350 349 349 352 353 352 351 352 354
344 345 346 346 348 349 349 348 348 347 348 352 352 350 351 351 349 350 350 350 350 349 343 338 326 317 317 318 320 323 332 352 351 348 350 349 349 354 355 353 353 352
342 344 345 345 345 345 346 348 347 347 348 350 349 350 351 349 348 347 349 349 351 349 342 335 329 319 315 315 317 319 337 354 353 351 349 348 352 355 354 354 354 353
340 340 341 342 342 342 343 345 346 346 345 350 347 348 348 348 346 346 347 349 350 345 339 332 327 321 313 313 314 317 331 349 355 349 349 349 350 350 347 346 355 361
339 339 339 339 339 340 342 342 343 343 344 347 347 347 348 347 346 343 343 343 342 340 340 330 327 325 314 312 313 315 331 348 356 351 350 349 348 345 341 334 336 344
340 340 340 340 340 341 342 343 344 344 342 343 344 344 345 346 344 342 340 339 338 335 332 330 327 325 320 311 310 313 322 352 352 349 347 347 347 346 339 333 330 329

ECMWFNIL_sfc_thetae_114.txt.gz
Theta_e
354 355 354 354 355 356 355 355 355 354 354 353 353 354 355 354 356 355 357 357 356 359 361 360 362 361 365 361 362 361 363 358 361 359 355 357 356 356 354 353 352 349
354 356 359 356 357 358 356 357 356 355 354 354 354 354 355 357 356 355 355 356 357 358 360 359 359 357 358 358 359 358 359 360 357 366 358 357 356 357 357 356 353 351
354 355 356 354 355 357 357 357 357 356 355 357 357 355 356 360 357 356 355 356 356 356 359 359 360 359 359 359 357 356 355 356 356 358 358 356 359 357 356 358 356 354
354 355 355 355 355 356 357 357 357 358 358 358 357 359 360 360 357 354 355 362 355 355 357 358 359 360 359 360 360 358 356 354 356 357 358 360 360 360 358 358 359 356
355 356 356 355 354 355 355 355 355 357 357 358 357 357 361 358 356 354 357 357 354 354 355 358 358 358 359 357 359 357 358 357 358 357 355 353 354 360 359 358 355 354
357 357 357 355 354 353 353 353 353 354 354 355 356 357 358 357 355 354 356 356 354 354 355 357 358 358 359 358 360 358 357 359 358 356 355 353 355 359 361 358 355 354
356 357 358 356 355 353 353 352 353 354 353 354 357 356 357 356 354 354 355 355 356 357 357 355 356 357 359 358 360 358 357 356 354 356 356 356 357 357 360 359 358 356
355 357 358 357 354 354 353 353 353 354 354 354 355 356 356 356 354 354 355 355 354 354 354 356 356 355 358 358 359 359 358 360 359 355 355 355 355 354 355 358 357 354
355 356 356 355 354 354 354 353 353 354 355 354 354 355 356 355 355 355 354 355 354 353 353 354 355 356 356 357 357 357 358 359 359 356 356 355 355 355 355 355 356 355
353 355 355 353 352 353 353 354 354 353 356 354 353 354 354 355 355 356 355 355 354 354 354 354 355 356 356 356 357 358 357 357 356 356 356 356 355 355 356 355 354 353
353 354 353 352 351 352 353 354 353 353 354 354 353 352 353 353 355 355 354 354 355 354 355 354 356 357 357 356 356 357 358 358 357 356 357 358 358 357 363 356 355 354
348 348 351 352 351 351 352 353 353 353 353 354 353 351 352 353 353 354 355 354 355 354 355 356 356 358 357 357 357 357 357 357 357 356 357 358 358 358 358 359 357 356
343 344 344 347 351 350 352 352 352 352 352 352 353 352 350 351 352 353 355 354 355 355 355 356 355 356 357 357 357 356 356 356 355 355 356 356 356 357 358 357 357 356
346 347 347 351 350 349 347 348 350 350 350 352 353 351 350 349 350 352 353 353 353 355 356 358 356 355 356 356 357 357 356 355 355 355 356 356 356 356 356 356 352 351
347 347 347 353 354 350 350 348 349 348 347 348 350 350 351 349 349 351 351 352 353 354 357 359 358 357 358 357 357 357 356 354 355 355 354 354 354 354 352 350 351 352
348 349 350 352 350 350 349 349 349 348 348 347 347 347 348 348 347 349 351 352 353 355 356 358 358 360 362 364 364 360 357 358 356 354 350 348 349 351 348 351 351 350
352 350 350 348 347 348 347 346 346 347 347 347 347 346 346 349 347 348 349 350 351 352 355 357 355 353 341 333 338 347 360 357 356 351 346 349 351 351 347 348 348 349
349 349 348 346 346 346 346 345 345 345 346 347 347 348 347 347 346 346 346 347 349 352 354 352 347 339 329 332 334 336 348 353 349 347 347 347 352 350 350 350 350 349
349 349 347 345 346 346 346 345 344 344 344 348 349 349 349 345 344 345 344 347 347 349 351 350 341 329 329 333 334 333 341 353 347 348 347 345 348 348 348 350 351 351
344 344 343 343 344 345 345 344 344 343 344 347 351 351 349 347 346 344 344 344 345 347 347 342 337 328 326 328 329 332 339 349 346 348 348 347 348 349 348 348 349 350
344 346 345 344 344 346 346 345 344 343 345 348 348 348 348 347 347 347 346 348 349 345 342 337 328 320 321 323 324 329 335 350 346 348 348 348 351 351 350 349 349 351
342 344 345 345 345 347 347 345 344 344 346 348 347 346 346 347 347 346 346 347 347 343 339 331 324 317 317 318 320 324 340 350 345 346 346 348 349 351 351 350 351 352
340 342 342 341 342 342 342 341 343 344 346 348 347 346 346 345 344 346 346 346 347 342 336 331 328 318 315 315 316 318 338 346 345 345 346 347 348 353 353 353 353 353
339 340 340 340 340 341 342 344 344 344 344 349 345 346 345 345 344 343 343 344 346 340 335 330 326 321 313 313 314 317 329 346 345 344 345 347 350 349 348 351 354 361
339 339 339 338 339 340 341 341 342 343 345 344 345 345 345 345 345 342 341 340 340 337 337 329 327 325 314 311 312 314 327 342 349 345 346 348 347 342 339 339 347 355
340 339 338 338 339 341 342 341 343 342 341 342 343 344 343 342 342 340 337 334 333 331 330 328 326 325 321 310 309 312 318 341 351 347 345 346 344 338 334 331 331 332

ECMWFNIL_sfc_thetae_117.txt.gz
Theta_e
351 352 349 349 349 351 351 349 351 351 352 351 351 351 351 353 355 354 355 355 355 354 355 355 357 356 360 356 358 357 358 353 357 353 352 353 352 353 354 353 351 348
350 353 354 351 351 355 353 352 352 352 352 352 352 352 353 354 354 354 353 354 355 356 356 357 358 356 356 356 356 354 354 356 352 364 354 353 353 353 354 354 352 350
351 353 353 351 351 353 354 354 354 353 353 353 353 353 354 357 354 353 353 354 354 355 355 356 356 356 356 355 353 354 353 351 352 355 354 351 355 353 353 355 354 353
351 352 354 353 353 353 355 354 354 354 354 353 354 355 355 357 356 355 352 359 354 354 355 356 357 356 356 355 355 352 352 350 352 353 355 355 356 356 353 354 356 353
352 352 354 354 354 355 355 354 355 354 355 355 356 356 358 356 355 354 353 353 354 353 353 356 356 356 357 355 356 354 353 353 353 353 352 351 350 356 356 354 351 352
352 353 354 354 353 354 354 354 354 355 355 355 355 357 356 356 355 353 353 353 354 353 353 354 355 356 357 355 356 355 355 356 354 353 352 350 352 352 358 355 352 351
352 352 353 354 353 353 353 353 354 355 354 354 355 355 355 355 354 353 353 354 354 353 352 353 354 355 356 355 354 355 354 353 351 351 352 352 352 354 355 355 355 351
353 353 354 354 353 352 352 352 352 352 353 352 352 354 355 355 354 354 354 354 353 352 353 353 353 354 355 356 355 354 355 357 355 351 350 350 350 350 352 354 354 352
354 354 354 354 353 352 351 351 351 352 353 352 352 353 355 355 355 353 352 353 353 353 353 353 353 354 354 356 355 355 355 356 357 354 352 351 351 351 352 351 351 351
352 353 354 355 354 353 352 352 352 352 353 352 352 352 353 354 355 354 352 352 352 352 351 352 353 353 353 355 355 355 355 355 355 354 354 353 352 351 352 351 351 348
352 353 353 354 354 353 353 353 352 352 352 353 353 352 352 353 354 354 352 351 352 352 352 351 352 353 353 354 355 355 355 355 355 354 354 353 354 353 360 354 352 351
351 352 352 353 353 353 352 353 353 353 352 353 353 352 352 352 352 353 353 352 352 352 352 353 353 353 353 354 354 355 355 356 356 355 354 355 355 356 356 356 355 353
350 350 351 352 352 352 352 352 352 352 352 352 353 353 351 351 351 351 353 353 353 353 353 353 353 354 354 354 354 354 354 354 355 354 354 354 355 356 356 356 356 356
348 348 348 348 348 350 350 351 351 351 351 352 352 352 351 350 350 350 351 353 353 353 353 354 353 353 354 354 355 355 354 353 353 353 353 353 354 352 353 354 354 354
345 346 346 346 349 349 348 348 349 350 350 350 351 351 352 351 350 350 350 351 352 352 353 354 354 354 354 354 354 354 354 353 353 353 352 350 351 351 350 350 349 350
344 344 345 346 348 348 348 347 346 347 348 347 348 349 350 350 348 348 349 350 350 350 351 354 355 356 359 361 360 356 354 354 353 350 348 348 349 349 348 349 349 349
344 342 342 341 343 344 342 344 345 346 346 345 346 346 347 348 348 346 347 349 350 350 351 354 356 358 358 347 349 357 359 354 352 347 346 347 349 348 347 347 347 348
343 343 341 341 341 340 340 342 343 342 344 344 344 345 345 347 347 346 346 348 350 350 351 353 354 353 336 337 340 342 358 356 351 348 348 347 348 348 348 348 347 348
343 343 342 341 341 341 340 343 342 341 342 344 345 345 345 345 345 345 345 347 348 348 350 353 348 332 332 336 336 337 347 358 349 348 348 346 347 347 346 347 347 348
343 341 341 341 341 341 340 340 341 340 341 342 345 348 344 342 342 342 342 343 345 346 349 346 337 327 328 331 331 334 340 352 347 348 348 346 346 346 346 346 346 347
341 340 341 342 341 341 341 341 341 341 342 343 344 344 345 343 343 342 342 345 346 345 343 333 325 320 321 324 324 328 333 349 345 347 347 346 345 347 347 346 345 347
341 342 342 342 343 343 344 343 342 341 342 345 345 344 342 341 342 344 344 343 342 340 335 328 322 317 318 319 320 322 330 342 344 344 345 346 345 346 347 346 346 347
340 341 340 341 343 343 342 342 342 341 343 346 344 342 343 342 341 342 344 343 342 337 332 328 325 320 315 315 317 319 330 341 344 344 344 344 345 347 348 347 347 348
340 340 340 339 339 339 340 340 340 341 342 344 343 343 341 341 342 341 341 342 340 335 331 327 325 322 313 312 313 315 328 338 342 343 343 344 344 346 347 347 348 359
338 338 337 337 337 338 339 338 340 341 343 346 345 345 342 342 344 341 340 337 336 336 338 328 326 325 314 312 312 313 327 335 342 342 341 343 346 346 341 342 344 353
339 340 339 338 337 338 338 338 340 340 339 341 342 342 341 342 343 340 336 331 332 330 330 328 326 324 321 312 311 312 317 335 343 344 342 342 344 342 338 334 334 333

ECMWFNIL_sfc_thetae_120.txt.gz
Theta_e
350 351 350 350 350 350 350 350 351 352 353 354 353 353 353 356 359 359 358 360 359 358 358 358 360 361 363 362 363 359 360 358 363 359 358 360 359 357 357 357 357 356
351 353 354 351 352 355 353 352 352 352 353 354 354 354 355 357 357 358 357 357 359 359 359 358 359 361 361 361 362 360 360 363 361 367 361 359 361 358 359 359 358 357
351 353 353 351 350 352 354 353 353 353 354 355 355 355 355 358 357 357 357 357 357 358 358 359 359 361 360 360 360 361 360 358 359 359 359 358 361 360 361 360 360 358
351 353 353 352 352 352 354 355 355 355 355 355 355 355 356 358 359 357 356 360 357 357 357 358 360 360 360 360 360 359 358 358 358 360 361 361 360 361 361 361 361 359
351 352 354 354 353 354 355 355 354 355 355 355 356 357 358 358 358 357 357 356 358 357 357 358 359 359 360 359 360 360 359 359 359 360 360 359 358 361 361 362 360 359
353 353 355 354 354 354 355 355 355 355 356 355 356 358 358 357 357 357 357 356 355 355 356 356 357 358 360 360 360 360 360 360 360 360 359 359 359 358 359 361 360 360
352 352 353 355 354 355 355 355 356 358 357 357 358 357 358 357 357 358 357 356 356 357 355 356 357 358 359 360 360 360 360 360 359 359 359 359 360 360 359 362 362 360
353 353 353 354 354 354 354 355 355 356 357 357 356 357 358 357 357 357 357 356 356 356 356 356 356 358 357 359 358 358 358 358 358 358 358 358 357 358 359 359 361 360
353 353 353 353 353 353 353 354 354 355 356 356 355 355 357 357 357 357 357 357 356 357 356 356 356 356 357 358 358 358 358 358 359 359 358 358 357 358 359 359 358 359
353 353 353 353 353 353 353 353 354 354 355 354 354 354 354 357 358 358 357 356 356 357 356 356 356 356 356 357 358 358 358 358 359 359 359 358 358 358 357 358 357 357
353 353 353 353 353 353 353 353 353 353 354 354 354 353 354 354 357 358 357 356 354 355 356 356 356 356 356 356 357 358 359 358 359 359 359 359 359 359 360 359 357 357
353 353 353 353 354 354 354 354 354 354 353 354 354 353 354 354 354 355 356 356 356 355 356 356 356 357 357 357 356 357 358 358 359 359 359 359 359 358 359 360 360 360
352 352 353 354 354 355 355 355 354 354 354 353 354 354 354 353 353 355 356 356 356 355 355 356 356 356 357 357 357 357 357 358 358 358 358 358 359 359 359 360 360 360
352 352 352 352 353 354 354 354 354 354 354 355 355 354 353 353 353 353 354 356 356 356 356 357 357 356 357 357 358 357 357 357 357 358 358 358 358 359 359 359 360 360
348 347 347 347 347 347 346 346 348 350 353 354 355 355 354 354 354 354 354 354 355 356 356 356 355 355 356 357 358 358 358 356 356 357 357 357 358 358 357 357 358 359
345 346 344 344 344 344 344 346 347 348 349 350 352 353 354 355 355 354 353 353 353 354 355 355 356 357 358 360 359 359 358 357 357 357 358 357 357 356 355 355 354 355
345 345 345 344 345 345 345 346 346 346 347 347 348 349 351 353 354 352 351 352 352 352 352 354 355 357 355 345 346 354 361 358 357 358 357 356 356 355 354 354 354 354
344 344 344 343 343 343 344 344 344 344 345 346 348 348 349 350 350 351 351 351 351 352 352 353 354 354 343 341 342 343 356 360 358 356 355 354 354 354 354 354 354 353
344 343 342 342 342 342 343 343 342 342 342 343 346 350 351 348 348 348 348 350 349 350 351 353 354 341 337 340 340 340 344 362 360 357 356 354 352 353 353 354 354 354
344 343 341 341 342 342 342 342 342 342 343 345 348 347 346 345 346 346 346 347 348 349 351 353 350 331 329 331 332 333 335 349 359 357 356 356 354 353 353 352 353 352
342 342 341 342 342 341 341 342 343 342 343 345 345 345 345 344 344 345 347 349 349 349 350 343 328 320 322 324 324 326 329 339 351 354 355 354 353 353 353 353 353 353
341 341 342 340 340 340 341 341 341 341 341 345 346 344 343 344 345 345 346 345 344 344 343 333 325 317 318 319 320 322 329 340 345 349 351 351 352 352 352 353 353 353
342 341 341 341 341 340 341 342 342 342 343 347 343 343 343 344 344 345 346 346 345 340 335 329 327 320 315 315 317 320 333 340 343 346 347 347 349 351 352 352 352 352
342 341 341 341 341 341 341 340 341 341 341 346 344 343 342 343 344 343 341 342 340 337 333 329 328 323 313 313 314 317 332 339 343 345 346 347 347 349 351 352 352 356
339 340 339 338 339 340 342 342 342 341 343 345 344 344 343 343 345 341 339 336 336 336 336 329 328 326 314 312 313 314 329 338 341 344 344 346 346 348 350 351 352 355
340 340 339 338 337 338 339 340 341 340 340 342 344 344 343 341 344 340 336 331 331 330 330 328 327 327 320 310 310 313 320 339 343 344 344 344 345 347 347 345 346 342

ECMWFNIL_sfc_thetae_123.txt.gz
Theta_e
358 358 357 357 358 358 360 360 358 358 361 359 357 359 360 364 365 365 365 366 366 365 366 368 368 368 365 368 370 368 367 367 366 365 366 365 362 360 357 359 361 361
359 359 360 358 360 362 362 360 361 360 363 364 361 362 364 365 363 364 364 364 365 365 368 366 367 367 367 365 368 366 366 366 365 364 365 365 363 361 359 361 361 363
358 359 358 357 356 359 358 360 361 362 360 360 362 366 363 364 362 366 367 365 363 363 366 368 367 367 366 367 369 366 364 367 364 363 366 364 364 363 363 360 359 361
359 359 357 356 356 357 359 361 362 362 361 362 361 362 362 361 363 363 366 367 366 365 365 365 365 364 365 366 369 365 365 367 365 366 365 366 365 364 364 364 361 360
358 359 359 359 358 360 361 360 358 359 359 360 361 364 365 366 365 362 364 364 367 364 365 366 366 364 367 367 368 365 365 364 365 367 365 364 365 364 362 363 364 360
360 361 362 360 361 361 358 358 359 358 359 358 360 362 362 364 363 362 362 361 360 360 359 360 362 361 362 364 367 365 363 362 364 366 364 364 361 363 361 363 364 362
357 360 359 360 359 359 359 359 360 361 359 359 362 361 362 361 362 362 363 362 360 362 360 362 365 364 364 366 367 367 366 366 366 366 364 363 364 363 364 364 365 365
356 358 359 360 359 359 359 359 359 360 362 362 360 362 363 361 362 361 362 362 361 361 363 361 364 367 363 363 365 365 365 361 362 365 365 364 364 364 363 362 364 365
357 358 359 359 358 358 357 357 359 360 362 361 359 359 363 362 361 361 363 365 362 362 364 363 365 364 364 364 365 365 364 360 360 362 364 363 362 363 362 362 362 363
358 358 357 357 357 357 357 358 358 359 362 360 359 359 359 363 363 362 363 366 363 363 364 365 364 363 363 364 365 365 364 363 363 363 363 363 362 363 362 362 360 360
357 358 357 357 357 357 358 358 358 359 360 360 359 358 359 360 363 364 364 365 360 361 363 364 363 364 364 362 363 363 364 361 362 364 364 364 363 364 364 365 363 361
358 358 357 358 358 358 358 358 358 358 359 360 359 358 360 359 359 361 361 363 363 363 363 364 365 365 365 364 362 362 362 362 362 364 362 363 364 363 364 365 363 364
358 360 361 359 359 359 359 359 358 357 357 357 359 359 358 357 357 360 361 361 363 363 361 363 364 363 365 366 364 363 362 362 360 362 362 363 364 363 363 363 363 363
359 360 360 361 361 362 361 360 359 358 358 359 360 359 358 357 356 356 359 360 361 362 363 364 365 364 365 366 364 363 363 362 362 362 361 358 356 356 358 360 363 363
361 361 360 360 361 361 360 359 360 361 361 362 362 361 358 359 358 357 358 359 360 362 363 363 361 361 362 363 364 364 364 361 360 360 356 355 358 357 358 361 362 363
361 361 360 360 359 359 360 361 360 360 359 360 360 360 361 361 361 361 360 359 359 361 362 361 360 361 364 360 361 363 361 357 358 360 361 361 361 359 359 361 361 363
361 361 359 358 359 361 362 361 359 358 358 359 359 360 361 362 361 360 359 358 358 359 360 360 358 358 360 347 345 350 361 359 358 360 362 363 361 361 362 361 363 363
357 357 357 357 358 359 360 361 360 357 357 358 357 357 360 359 358 358 360 359 358 358 358 358 358 360 343 341 341 341 353 360 360 359 357 359 361 362 363 362 362 361
350 349 353 355 355 358 358 359 358 358 357 357 356 359 360 359 360 358 358 359 358 358 357 358 357 351 341 341 341 339 340 355 360 358 361 362 362 363 363 364 364 363
345 349 351 351 353 355 357 357 357 357 358 358 357 358 357 357 357 357 357 358 357 358 359 357 358 334 331 334 334 333 336 345 360 362 365 363 363 363 362 363 364 363
347 349 349 350 350 353 355 356 356 356 355 355 356 356 355 356 356 356 356 356 355 355 356 356 338 321 325 327 327 328 331 344 357 362 365 365 365 364 365 364 365 365
343 344 345 346 346 348 349 350 351 352 353 354 356 357 358 357 356 356 355 354 355 354 354 348 335 317 321 322 323 325 333 349 356 359 362 362 363 364 365 367 366 365
342 342 342 342 343 343 344 345 346 347 349 351 352 353 353 355 355 355 356 355 355 355 352 347 340 323 316 318 320 323 335 353 355 355 357 358 359 361 362 364 363 363
342 341 341 341 342 340 340 342 345 345 346 348 350 350 351 353 354 352 351 350 350 350 348 346 340 324 314 315 316 320 337 351 354 354 355 356 357 359 360 360 360 357
341 341 340 341 341 342 343 343 345 346 347 348 349 349 348 348 349 347 346 345 346 346 342 343 340 331 313 312 313 317 336 352 351 352 352 353 354 355 357 357 357 356
341 340 339 338 337 338 340 341 344 346 346 346 346 347 347 347 349 345 342 338 339 340 339 340 337 333 322 310 311 315 321 348 351 349 349 351 352 351 351 353 354 354

ECMWFNIL_sfc_thetae_126.txt.gz
Theta_e
359 359 358 358 357 357 358 357 357 357 359 357 354 355 356 362 364 363 364 366 368 368 369 370 370 370 366 370 373 371 368 368 368 366 366 365 362 360 356 359 361 360
360 360 360 359 360 361 360 360 361 360 360 362 360 359 360 361 361 363 362 362 367 366 369 368 370 369 369 367 370 367 368 369 367 363 365 367 363 361 359 360 359 363
359 358 357 357 356 359 358 360 362 361 360 360 362 362 359 360 361 363 362 361 362 363 367 370 369 370 368 368 371 368 365 368 366 363 366 367 365 365 365 359 359 360
360 358 356 355 356 357 358 360 360 361 362 360 360 361 360 360 363 363 363 363 364 366 367 367 367 367 368 367 371 366 365 370 366 370 368 369 367 365 364 365 362 360
359 358 357 357 357 360 361 359 359 359 359 361 361 364 365 365 366 363 364 364 366 364 365 366 367 365 367 368 370 366 365 364 366 370 366 365 367 365 363 363 364 363
360 361 360 357 358 360 358 359 360 359 360 358 359 361 362 364 364 365 364 363 362 361 360 362 363 361 363 365 365 365 364 360 361 367 367 367 364 362 359 361 365 364
356 358 357 357 356 358 359 360 360 361 360 360 362 361 362 362 363 364 365 364 362 364 360 361 363 363 363 365 366 367 366 366 366 367 368 365 366 364 362 362 363 364
356 356 357 357 355 356 359 359 359 360 362 362 360 362 363 361 363 363 363 363 363 362 364 362 364 367 364 363 364 363 365 361 362 366 367 364 365 365 365 360 362 365
357 356 357 356 354 354 356 357 358 360 362 361 359 360 363 361 361 361 362 364 362 363 365 364 365 363 364 363 362 363 364 362 359 362 364 364 363 365 362 363 361 363
357 357 354 354 352 353 355 357 357 359 361 360 359 358 358 362 361 362 364 365 363 363 363 364 362 362 361 362 363 365 364 363 364 363 363 363 363 362 362 363 362 362
356 356 354 354 353 352 354 356 357 357 360 360 359 358 358 360 363 364 364 366 362 362 362 363 362 362 362 361 362 363 363 363 364 363 364 364 364 364 364 366 365 363
356 356 355 354 353 352 353 355 356 357 358 359 359 359 360 359 361 362 362 365 365 363 363 364 365 365 365 365 363 362 362 362 363 363 361 362 363 362 364 364 363 364
359 360 359 357 356 355 354 356 356 356 356 357 359 359 359 358 358 361 362 362 364 362 361 364 365 364 365 366 365 364 363 362 360 360 359 359 360 360 361 363 363 362
359 360 362 361 360 360 358 357 357 356 357 358 359 359 358 358 357 357 359 361 361 362 362 364 366 366 367 368 367 365 363 362 361 360 360 359 360 363 364 362 361 359
356 355 358 363 363 361 361 359 359 359 358 359 360 359 357 358 358 357 358 358 360 361 362 362 361 362 362 364 366 364 364 362 363 363 363 363 362 360 360 362 362 361
353 352 353 353 357 359 360 363 362 361 360 360 360 359 359 359 360 359 358 358 358 360 362 361 360 360 366 367 364 366 364 361 364 362 362 363 363 361 359 360 361 361
354 353 353 352 350 354 356 356 362 362 363 363 361 360 360 361 359 359 358 358 358 359 360 360 359 360 363 347 349 359 367 367 364 364 364 364 362 362 361 359 359 360
357 355 353 351 352 351 351 353 359 364 364 364 361 359 363 361 360 359 361 360 359 359 358 359 360 361 342 343 345 346 358 363 363 361 360 360 361 360 361 361 361 360
357 356 354 353 352 351 350 352 353 358 366 366 362 362 364 364 363 361 358 364 359 360 358 358 357 344 338 341 342 342 346 360 360 363 362 361 361 361 362 361 362 362
357 355 354 353 352 351 351 348 349 349 362 366 365 364 365 365 363 362 362 361 361 358 362 361 360 343 337 340 338 338 340 350 361 360 362 362 362 362 360 360 362 359
354 352 351 351 351 351 349 349 350 348 352 356 359 362 365 365 363 362 362 362 358 359 358 359 349 324 328 330 330 333 337 349 360 360 364 363 363 363 360 358 358 357
353 352 350 350 349 349 347 347 346 342 340 344 347 351 355 356 358 362 359 360 361 359 357 353 338 319 322 324 324 329 335 352 359 362 364 364 363 362 360 361 360 360
352 351 349 347 348 346 345 346 346 345 346 349 349 350 349 352 354 354 353 354 354 356 357 356 344 324 317 318 320 321 333 356 359 361 363 363 364 360 359 358 357 364
347 347 345 346 346 345 343 342 345 346 346 348 349 350 352 351 348 346 347 347 348 350 348 351 341 327 314 316 317 320 333 353 360 361 362 362 363 365 367 367 366 360
345 346 345 345 345 344 343 341 343 345 347 349 350 352 351 352 351 346 344 345 347 346 346 346 343 335 315 313 315 318 336 356 356 358 357 358 359 360 362 361 361 359
345 344 345 344 344 344 345 344 346 348 347 348 349 349 348 349 348 345 341 340 343 344 342 341 339 336 325 311 312 316 320 348 356 354 354 355 357 358 356 358 358 359